Observation data for Persimmon Gap on 02/13/2018      Previous  Date  Next       Current Mesonet Observations  Soil Data  Daily Summary Page  Observations in Plain Language
KPG1 130600Z 03015KT 06/M04 A3019 RMK A01 T00551039  RH  051%=      5-min Rain = 0
KPG1 130601Z 03017KT 06/M04 A3019 RMK A01 T00551039  RH  051%=      5-min Rain = 0
KPG1 130602Z 03017KT 06/M04 A3019 RMK A01 T00551038  RH  051%=      5-min Rain = 0
KPG1 130603Z 03017KT 06/M04 A3019 RMK A01 T00551038  RH  051%=      5-min Rain = 0
KPG1 130604Z 03017KT 06/M04 A3019 RMK A01 T00551038  RH  051%=      5-min Rain = 0
KPG1 130605Z 04016KT 06/M04 A3019 RMK A01 T00551039  RH  051%=      5-min Rain = 0
KPG1 130606Z 03017KT 06/M04 A3019 RMK A01 T00551039  RH  051%=      5-min Rain = 0
KPG1 130607Z 04017KT 06/M04 A3019 RMK A01 T00551039  RH  051%=      5-min Rain = 0
KPG1 130608Z 04017KT 06/M04 A3019 RMK A01 T00551039  RH  051%=      5-min Rain = 0
KPG1 130609Z 04017KT 06/M04 A3019 RMK A01 T00551039  RH  051%=      5-min Rain = 0
KPG1 130610Z 04017KT 06/M04 A3019 RMK A01 T00551039  RH  051%=      5-min Rain = 0
KPG1 130611Z 04017KT 06/M04 A3019 RMK A01 T00551039  RH  051%=      5-min Rain = 0
KPG1 130612Z 04018KT 06/M04 A3019 RMK A01 T00551039  RH  051%=      5-min Rain = 0
KPG1 130613Z 04016KT 06/M04 A3019 RMK A01 T00551038  RH  051%=      5-min Rain = 0
KPG1 130614Z 04016KT 06/M04 A3019 RMK A01 T00551038  RH  051%=      5-min Rain = 0
KPG1 130615Z 04017KT 06/M04 A3019 RMK A01 T00561038  RH  051%=      5-min Rain = 0
KPG1 130616Z 04015KT 06/M04 A3019 RMK A01 T00551039  RH  051%=      5-min Rain = 0
KPG1 130617Z 04016KT 06/M04 A3019 RMK A01 T00551039  RH  051%=      5-min Rain = 0
KPG1 130618Z 03016KT 05/M04 A3019 RMK A01 T00541039  RH  051%=      5-min Rain = 0
KPG1 130619Z 03016KT 05/M04 A3019 RMK A01 T00541039  RH  051%=      5-min Rain = 0
KPG1 130620Z 04016KT 05/M04 A3019 RMK A01 T00541039  RH  051%=      5-min Rain = 0
KPG1 130621Z 04017KT 05/M04 A3019 RMK A01 T00541039  RH  051%=      5-min Rain = 0
KPG1 130622Z 03016KT 05/M04 A3019 RMK A01 T00541039  RH  051%=      5-min Rain = 0
KPG1 130623Z 03017KT 05/M04 A3019 RMK A01 T00541039  RH  051%=      5-min Rain = 0
KPG1 130624Z 04016KT 05/M04 A3019 RMK A01 T00541039  RH  051%=      5-min Rain = 0
KPG1 130625Z 03015KT 05/M04 A3019 RMK A01 T00541039  RH  051%=      5-min Rain = 0
KPG1 130626Z 03013KT 05/M04 A3019 RMK A01 T00541040  RH  051%=      5-min Rain = 0
KPG1 130627Z 03014KT 05/M04 A302 RMK A01 T00531040  RH  051%=      5-min Rain = 0
KPG1 130628Z 03015KT 05/M04 A302 RMK A01 T00521041  RH  051%=      5-min Rain = 0
KPG1 130629Z 03016KT 05/M04 A302 RMK A01 T00511041  RH  051%=      5-min Rain = 0
KPG1 130630Z 03016KT 05/M04 A3019 RMK A01 T00511040  RH  052%=      5-min Rain = 0
KPG1 130631Z 03017KT 05/M04 A3019 RMK A01 T00511040  RH  052%=      5-min Rain = 0
KPG1 130632Z 04016KT 05/M04 A3019 RMK A01 T00511040  RH  052%=      5-min Rain = 0
KPG1 130633Z 04017KT 05/M04 A3019 RMK A01 T00511040  RH  052%=      5-min Rain = 0
KPG1 130634Z 03016KT 05/M04 A3019 RMK A01 T00521040  RH  052%=      5-min Rain = 0
KPG1 130635Z 03016KT 05/M04 A302 RMK A01 T00521040  RH  052%=      5-min Rain = 0
KPG1 130636Z 03015KT 05/M04 A302 RMK A01 T00511040  RH  052%=      5-min Rain = 0
KPG1 130637Z 03017KT 05/M04 A3019 RMK A01 T00521040  RH  052%=      5-min Rain = 0
KPG1 130638Z 03016KT 05/M04 A3019 RMK A01 T00521040  RH  052%=      5-min Rain = 0
KPG1 130639Z 03017KT 05/M04 A3019 RMK A01 T00511040  RH  052%=      5-min Rain = 0
KPG1 130640Z 03016KT 05/M04 A3019 RMK A01 T00521040  RH  052%=      5-min Rain = 0
KPG1 130641Z 04015KT 05/M04 A3019 RMK A01 T00521040  RH  052%=      5-min Rain = 0
KPG1 130642Z 04016KT 05/M04 A3019 RMK A01 T00511040  RH  052%=      5-min Rain = 0
KPG1 130643Z 04016KT 05/M04 A3019 RMK A01 T00511040  RH  052%=      5-min Rain = 0
KPG1 130644Z 04017KT 05/M04 A3019 RMK A01 T00511040  RH  052%=      5-min Rain = 0
KPG1 130645Z 04017KT 05/M04 A3019 RMK A01 T00511040  RH  052%=      5-min Rain = 0
KPG1 130646Z 04018KT 05/M04 A3019 RMK A01 T00511040  RH  052%=      5-min Rain = 0
KPG1 130647Z 04018KT 05/M04 A3019 RMK A01 T00521040  RH  052%=      5-min Rain = 0
KPG1 130648Z 04017KT 05/M04 A3019 RMK A01 T00521040  RH  052%=      5-min Rain = 0
KPG1 130649Z 03017KT 05/M04 A3019 RMK A01 T00521040  RH  052%=      5-min Rain = 0
KPG1 130650Z 03014KT 05/M04 A3019 RMK A01 T00511040  RH  052%=      5-min Rain = 0
KPG1 130651Z 03015KT 05/M04 A3019 RMK A01 T00511040  RH  052%=      5-min Rain = 0
KPG1 130652Z 03017KT 05/M04 A3018 RMK A01 T00501041  RH  052%=      5-min Rain = 0
KPG1 130653Z 03016KT 05/M04 A3018 RMK A01 T00501041  RH  052%=      5-min Rain = 0
KPG1 130654Z 03016KT 05/M04 A3018 RMK A01 T00501041  RH  052%=      5-min Rain = 0
KPG1 130655Z 03015KT 05/M04 A3018 RMK A01 T00491041  RH  052%=      5-min Rain = 0
KPG1 130656Z 03014KT 05/M04 A3018 RMK A01 T00491040  RH  052%=      5-min Rain = 0
KPG1 130657Z 03015KT 05/M04 A3018 RMK A01 T00491040  RH  052%=      5-min Rain = 0
KPG1 130658Z 03016KT 05/M04 A3018 RMK A01 T00501040  RH  052%=      5-min Rain = 0
KPG1 130659Z 04016KT 05/M04 A3018 RMK A01 T00501040  RH  052%=      5-min Rain = 0
KPG1 130700Z 03015KT 05/M04 A3018 RMK A01 T00501040  RH  052%=      5-min Rain = 0
KPG1 130701Z 03015KT 05/M04 A3018 RMK A01 T00501040  RH  052%=      5-min Rain = 0
KPG1 130702Z 04014KT 05/M04 A3018 RMK A01 T00501040  RH  052%=      5-min Rain = 0
KPG1 130703Z 03015KT 05/M04 A3018 RMK A01 T00501040  RH  052%=      5-min Rain = 0
KPG1 130704Z 03015KT 05/M04 A3018 RMK A01 T00501040  RH  052%=      5-min Rain = 0
KPG1 130705Z 03015KT 05/M04 A3018 RMK A01 T00501040  RH  052%=      5-min Rain = 0
KPG1 130706Z 04014KT 05/M04 A3018 RMK A01 T00501040  RH  052%=      5-min Rain = 0
KPG1 130707Z 04013KT 05/M04 A3019 RMK A01 T00501040  RH  052%=      5-min Rain = 0
KPG1 130708Z 04015KT 05/M04 A3019 RMK A01 T00511040  RH  052%=      5-min Rain = 0
KPG1 130709Z 04015KT 05/M04 A3019 RMK A01 T00511040  RH  052%=      5-min Rain = 0
KPG1 130710Z 04016KT 05/M04 A3019 RMK A01 T00501040  RH  052%=      5-min Rain = 0
KPG1 130711Z 04015KT 05/M04 A3018 RMK A01 T00501040  RH  052%=      5-min Rain = 0
KPG1 130712Z 03017KT 05/M04 A3018 RMK A01 T00501040  RH  052%=      5-min Rain = 0
KPG1 130713Z 04016KT 05/M04 A3018 RMK A01 T00491041  RH  052%=      5-min Rain = 0
KPG1 130714Z 04017KT 05/M04 A3018 RMK A01 T00481041  RH  052%=      5-min Rain = 0
KPG1 130715Z 04015KT 05/M04 A3018 RMK A01 T00481041  RH  053%=      5-min Rain = 0
KPG1 130716Z 04014KT 05/M04 A3018 RMK A01 T00481040  RH  053%=      5-min Rain = 0
KPG1 130717Z 04014KT 05/M04 A3018 RMK A01 T00491040  RH  053%=      5-min Rain = 0
KPG1 130718Z 04015KT 05/M04 A3019 RMK A01 T00501039  RH  052%=      5-min Rain = 0
KPG1 130719Z 05014KT 05/M04 A3019 RMK A01 T00521039  RH  052%=      5-min Rain = 0
KPG1 130720Z 04014KT 05/M04 A3019 RMK A01 T00521039  RH  052%=      5-min Rain = 0
KPG1 130721Z 05015KT 05/M04 A3019 RMK A01 T00531039  RH  052%=      5-min Rain = 0
KPG1 130722Z 05015KT 05/M04 A3019 RMK A01 T00541038  RH  052%=      5-min Rain = 0
KPG1 130723Z 05014KT 05/M04 A3019 RMK A01 T00541039  RH  051%=      5-min Rain = 0
KPG1 130724Z 05014KT 05/M04 A3019 RMK A01 T00541039  RH  051%=      5-min Rain = 0
KPG1 130725Z 05013KT 05/M04 A3019 RMK A01 T00541039  RH  051%=      5-min Rain = 0
KPG1 130726Z 05012KT 05/M04 A3019 RMK A01 T00541039  RH  051%=      5-min Rain = 0
KPG1 130727Z 05012KT 05/M04 A3019 RMK A01 T00531039  RH  051%=      5-min Rain = 0
KPG1 130728Z 05014KT 05/M04 A3019 RMK A01 T00531039  RH  051%=      5-min Rain = 0
KPG1 130729Z 05013KT 05/M04 A3019 RMK A01 T00521039  RH  052%=      5-min Rain = 0
KPG1 130730Z 05013KT 05/M04 A3019 RMK A01 T00521039  RH  052%=      5-min Rain = 0
KPG1 130731Z 05012KT 05/M04 A3019 RMK A01 T00521039  RH  052%=      5-min Rain = 0
KPG1 130732Z 06012KT 05/M04 A3019 RMK A01 T00521039  RH  052%=      5-min Rain = 0
KPG1 130733Z 05014KT 05/M04 A3019 RMK A01 T00521039  RH  052%=      5-min Rain = 0
KPG1 130734Z 06014KT 05/M04 A3019 RMK A01 T00521040  RH  052%=      5-min Rain = 0
KPG1 130735Z 06013KT 05/M04 A3019 RMK A01 T00521039  RH  052%=      5-min Rain = 0
KPG1 130736Z 05013KT 05/M04 A3019 RMK A01 T00521039  RH  052%=      5-min Rain = 0
KPG1 130737Z 05013KT 05/M04 A3019 RMK A01 T00521040  RH  052%=      5-min Rain = 0
KPG1 130738Z 05012KT 05/M04 A3019 RMK A01 T00521040  RH  052%=      5-min Rain = 0
KPG1 130739Z 05012KT 05/M04 A302 RMK A01 T00511040  RH  052%=      5-min Rain = 0
KPG1 130740Z 06013KT 05/M04 A302 RMK A01 T00511039  RH  052%=      5-min Rain = 0
KPG1 130741Z 06014KT 05/M04 A302 RMK A01 T00511039  RH  052%=      5-min Rain = 0
KPG1 130742Z 05013KT 05/M04 A302 RMK A01 T00511039  RH  052%=      5-min Rain = 0
KPG1 130743Z 05012KT 05/M04 A3019 RMK A01 T00521039  RH  052%=      5-min Rain = 0
KPG1 130744Z 05012KT 05/M04 A3019 RMK A01 T00511040  RH  052%=      5-min Rain = 0
KPG1 130745Z 05013KT 05/M04 A3019 RMK A01 T00511039  RH  052%=      5-min Rain = 0
KPG1 130746Z 04014KT 05/M04 A3019 RMK A01 T00511039  RH  052%=      5-min Rain = 0
KPG1 130747Z 05014KT 05/M04 A3019 RMK A01 T00511039  RH  052%=      5-min Rain = 0
KPG1 130748Z 05015KT 05/M04 A3019 RMK A01 T00511039  RH  052%=      5-min Rain = 0
KPG1 130749Z 05014KT 05/M04 A3019 RMK A01 T00511039  RH  052%=      5-min Rain = 0
KPG1 130750Z 05014KT 05/M04 A3019 RMK A01 T00521039  RH  052%=      5-min Rain = 0
KPG1 130751Z 04014KT 05/M04 A3019 RMK A01 T00521039  RH  052%=      5-min Rain = 0
KPG1 130752Z 04013KT 05/M04 A3019 RMK A01 T00521039  RH  052%=      5-min Rain = 0
KPG1 130753Z 05012KT 05/M04 A3019 RMK A01 T00521039  RH  052%=      5-min Rain = 0
KPG1 130754Z 05013KT 05/M04 A3019 RMK A01 T00511039  RH  052%=      5-min Rain = 0
KPG1 130755Z 05012KT 05/M04 A3019 RMK A01 T00521038  RH  052%=      5-min Rain = 0
KPG1 130756Z 05012KT 05/M04 A3018 RMK A01 T00521038  RH  052%=      5-min Rain = 0
KPG1 130757Z 04014KT 05/M04 A3018 RMK A01 T00521039  RH  052%=      5-min Rain = 0
KPG1 130758Z 05013KT 05/M04 A3018 RMK A01 T00521038  RH  052%=      5-min Rain = 0
KPG1 130759Z 06014KT 05/M04 A3018 RMK A01 T00531038  RH  052%=      5-min Rain = 0
KPG1 130800Z 06013KT 05/M04 A3018 RMK A01 T00541037  RH  052%=      5-min Rain = 0
KPG1 130801Z 06013KT 05/M04 A3019 RMK A01 T00541038  RH  051%=      5-min Rain = 0
KPG1 130802Z 06015KT 05/M04 A3019 RMK A01 T00541038  RH  051%=      5-min Rain = 0
KPG1 130803Z 06014KT 05/M04 A3019 RMK A01 T00541039  RH  051%=      5-min Rain = 0
KPG1 130804Z 06013KT 05/M04 A3019 RMK A01 T00541039  RH  051%=      5-min Rain = 0
KPG1 130805Z 06015KT 05/M04 A3019 RMK A01 T00531039  RH  051%=      5-min Rain = 0
KPG1 130806Z 06014KT 05/M04 A3019 RMK A01 T00531039  RH  052%=      5-min Rain = 0
KPG1 130807Z 06014KT 05/M04 A3018 RMK A01 T00521039  RH  052%=      5-min Rain = 0
KPG1 130808Z 06014KT 05/M04 A3019 RMK A01 T00521039  RH  052%=      5-min Rain = 0
KPG1 130809Z 06013KT 05/M04 A3019 RMK A01 T00521039  RH  052%=      5-min Rain = 0
KPG1 130810Z 06013KT 05/M04 A3019 RMK A01 T00521039  RH  052%=      5-min Rain = 0
KPG1 130811Z 06013KT 05/M04 A3019 RMK A01 T00531039  RH  051%=      5-min Rain = 0
KPG1 130812Z 05013KT 05/M04 A3019 RMK A01 T00531039  RH  051%=      5-min Rain = 0
KPG1 130813Z 05012KT 05/M04 A3019 RMK A01 T00541039  RH  051%=      5-min Rain = 0
KPG1 130814Z 05012KT 05/M04 A3019 RMK A01 T00541039  RH  051%=      5-min Rain = 0
KPG1 130815Z 05012KT 05/M04 A3019 RMK A01 T00541039  RH  051%=      5-min Rain = 0
KPG1 130816Z 05012KT 05/M04 A3019 RMK A01 T00541039  RH  051%=      5-min Rain = 0
KPG1 130817Z 05013KT 06/M04 A3019 RMK A01 T00551039  RH  051%=      5-min Rain = 0
KPG1 130818Z 05011KT 06/M04 A3019 RMK A01 T00561039  RH  051%=      5-min Rain = 0
KPG1 130819Z 06012KT 06/M04 A3019 RMK A01 T00551039  RH  051%=      5-min Rain = 0
KPG1 130820Z 06013KT 06/M04 A3019 RMK A01 T00551040  RH  051%=      5-min Rain = 0
KPG1 130821Z 05014KT 05/M04 A3019 RMK A01 T00541040  RH  051%=      5-min Rain = 0
KPG1 130822Z 05013KT 05/M04 A3019 RMK A01 T00541040  RH  051%=      5-min Rain = 0
KPG1 130823Z 05013KT 05/M04 A3019 RMK A01 T00541040  RH  051%=      5-min Rain = 0
KPG1 130824Z 04012KT 05/M04 A3019 RMK A01 T00541040  RH  051%=      5-min Rain = 0
KPG1 130825Z 04012KT 05/M04 A3019 RMK A01 T00541039  RH  051%=      5-min Rain = 0
KPG1 130826Z 04011KT 06/M04 A3019 RMK A01 T00551039  RH  051%=      5-min Rain = 0
KPG1 130827Z 04011KT 05/M04 A3019 RMK A01 T00541040  RH  051%=      5-min Rain = 0
KPG1 130828Z 04011KT 05/M04 A3019 RMK A01 T00531040  RH  051%=      5-min Rain = 0
KPG1 130829Z 05011KT 05/M04 A3019 RMK A01 T00531040  RH  051%=      5-min Rain = 0
KPG1 130830Z 04011KT 05/M04 A3019 RMK A01 T00521041  RH  051%=      5-min Rain = 0
KPG1 130831Z 05013KT 05/M04 A3019 RMK A01 T00521040  RH  052%=      5-min Rain = 0
KPG1 130832Z 05012KT 05/M04 A3019 RMK A01 T00531039  RH  052%=      5-min Rain = 0
KPG1 130833Z 05012KT 05/M04 A3019 RMK A01 T00531039  RH  051%=      5-min Rain = 0
KPG1 130834Z 04011KT 05/M04 A3019 RMK A01 T00541039  RH  051%=      5-min Rain = 0
KPG1 130835Z 05011KT 05/M04 A3019 RMK A01 T00541039  RH  051%=      5-min Rain = 0
KPG1 130836Z 04011KT 05/M04 A3019 RMK A01 T00541039  RH  051%=      5-min Rain = 0
KPG1 130837Z 03009KT 05/M04 A3019 RMK A01 T00541039  RH  051%=      5-min Rain = 0
KPG1 130838Z 04009KT 05/M04 A3019 RMK A01 T00531039  RH  051%=      5-min Rain = 0
KPG1 130839Z 04010KT 05/M04 A3019 RMK A01 T00531039  RH  051%=      5-min Rain = 0
KPG1 130840Z 05011KT 05/M04 A3019 RMK A01 T00521039  RH  052%=      5-min Rain = 0
KPG1 130841Z 05010KT 05/M04 A3019 RMK A01 T00531039  RH  052%=      5-min Rain = 0
KPG1 130842Z 05011KT 05/M04 A3019 RMK A01 T00521039  RH  052%=      5-min Rain = 0
KPG1 130843Z 05010KT 05/M04 A3019 RMK A01 T00531039  RH  051%=      5-min Rain = 0
KPG1 130844Z 05009KT 05/M04 A3019 RMK A01 T00531039  RH  051%=      5-min Rain = 0
KPG1 130845Z 05010KT 05/M04 A3019 RMK A01 T00521040  RH  051%=      5-min Rain = 0
KPG1 130846Z 06013KT 05/M04 A3019 RMK A01 T00511040  RH  052%=      5-min Rain = 0
KPG1 130847Z 05012KT 05/M04 A3019 RMK A01 T00511040  RH  052%=      5-min Rain = 0
KPG1 130848Z 05011KT 05/M04 A3019 RMK A01 T00521039  RH  052%=      5-min Rain = 0
KPG1 130849Z 06013KT 05/M04 A3019 RMK A01 T00531039  RH  051%=      5-min Rain = 0
KPG1 130850Z 05013KT 05/M04 A3019 RMK A01 T00521040  RH  052%=      5-min Rain = 0
KPG1 130851Z 06013KT 05/M04 A3019 RMK A01 T00521039  RH  052%=      5-min Rain = 0
KPG1 130852Z 06014KT 05/M04 A3019 RMK A01 T00511040  RH  052%=      5-min Rain = 0
KPG1 130853Z 06014KT 05/M04 A3019 RMK A01 T00511040  RH  052%=      5-min Rain = 0
KPG1 130854Z 06014KT 05/M04 A3019 RMK A01 T00501041  RH  052%=      5-min Rain = 0
KPG1 130855Z 06013KT 05/M04 A3019 RMK A01 T00481042  RH  052%=      5-min Rain = 0
KPG1 130856Z 06012KT 05/M04 A3019 RMK A01 T00471043  RH  052%=      5-min Rain = 0
KPG1 130857Z 05011KT 05/M04 A3019 RMK A01 T00461042  RH  053%=      5-min Rain = 0
KPG1 130858Z 06013KT 05/M04 A3019 RMK A01 T00461043  RH  053%=      5-min Rain = 0
KPG1 130859Z 06014KT 05/M04 A3019 RMK A01 T00451043  RH  053%=      5-min Rain = 0
KPG1 130900Z 06014KT 04/M04 A3019 RMK A01 T00441043  RH  053%=      5-min Rain = 0
KPG1 130901Z 06013KT 04/M04 A3019 RMK A01 T00431044  RH  053%=      5-min Rain = 0
KPG1 130902Z 06015KT 04/M04 A3019 RMK A01 T00421044  RH  054%=      5-min Rain = 0
KPG1 130903Z 06014KT 04/M04 A3019 RMK A01 T00411044  RH  054%=      5-min Rain = 0
KPG1 130904Z 06014KT 04/M04 A3019 RMK A01 T00411044  RH  054%=      5-min Rain = 0
KPG1 130905Z 06015KT 04/M04 A3019 RMK A01 T00401044  RH  054%=      5-min Rain = 0
KPG1 130906Z 06015KT 04/M04 A3019 RMK A01 T00401044  RH  054%=      5-min Rain = 0
KPG1 130907Z 06015KT 04/M04 A3019 RMK A01 T00401044  RH  054%=      5-min Rain = 0
KPG1 130908Z 06014KT 04/M05 A3019 RMK A01 T00401045  RH  054%=      5-min Rain = 0
KPG1 130909Z 06013KT 04/M05 A3019 RMK A01 T00391046  RH  054%=      5-min Rain = 0
KPG1 130910Z 06013KT 04/M05 A3019 RMK A01 T00381046  RH  054%=      5-min Rain = 0
KPG1 130911Z 06015KT 04/M05 A3019 RMK A01 T00371046  RH  055%=      5-min Rain = 0
KPG1 130912Z 06016KT 04/M05 A3019 RMK A01 T00371046  RH  055%=      5-min Rain = 0
KPG1 130913Z 06017KT 04/M05 A3019 RMK A01 T00361046  RH  055%=      5-min Rain = 0
KPG1 130914Z 06016KT 04/M05 A3019 RMK A01 T00371046  RH  055%=      5-min Rain = 0
KPG1 130915Z 06014KT 04/M05 A3019 RMK A01 T00381045  RH  055%=      5-min Rain = 0
KPG1 130916Z 06016KT 04/M05 A3019 RMK A01 T00381045  RH  055%=      5-min Rain = 0
KPG1 130917Z 06015KT 04/M05 A3019 RMK A01 T00381045  RH  055%=      5-min Rain = 0
KPG1 130918Z 06015KT 04/M05 A3019 RMK A01 T00371046  RH  054%=      5-min Rain = 0
KPG1 130919Z 06013KT 04/M05 A3019 RMK A01 T00361047  RH  055%=      5-min Rain = 0
KPG1 130920Z 06012KT 04/M05 A302 RMK A01 T00351047  RH  055%=      5-min Rain = 0
KPG1 130921Z 06014KT 03/M05 A302 RMK A01 T00341047  RH  055%=      5-min Rain = 0
KPG1 130922Z 06014KT 03/M05 A302 RMK A01 T00341047  RH  055%=      5-min Rain = 0
KPG1 130923Z 06015KT 03/M05 A302 RMK A01 T00341047  RH  055%=      5-min Rain = 0
KPG1 130924Z 05014KT 03/M05 A302 RMK A01 T00331047  RH  056%=      5-min Rain = 0
KPG1 130925Z 05013KT 03/M05 A302 RMK A01 T00341046  RH  056%=      5-min Rain = 0
KPG1 130926Z 05014KT 04/M05 A302 RMK A01 T00361045  RH  056%=      5-min Rain = 0
KPG1 130927Z 05014KT 04/M05 A302 RMK A01 T00371045  RH  055%=      5-min Rain = 0
KPG1 130928Z 05015KT 04/M05 A302 RMK A01 T00371045  RH  055%=      5-min Rain = 0
KPG1 130929Z 06014KT 04/M05 A302 RMK A01 T00371045  RH  055%=      5-min Rain = 0
KPG1 130930Z 06016KT 04/M05 A302 RMK A01 T00381045  RH  055%=      5-min Rain = 0
KPG1 130931Z 06016KT 04/M05 A302 RMK A01 T00381045  RH  055%=      5-min Rain = 0
KPG1 130932Z 06016KT 04/M04 A302 RMK A01 T00381044  RH  055%=      5-min Rain = 0
KPG1 130933Z 06015KT 04/M05 A302 RMK A01 T00381045  RH  055%=      5-min Rain = 0
KPG1 130934Z 06015KT 04/M05 A302 RMK A01 T00381046  RH  055%=      5-min Rain = 0
KPG1 130935Z 06014KT 04/M05 A302 RMK A01 T00371045  RH  055%=      5-min Rain = 0
KPG1 130936Z 06014KT 04/M05 A302 RMK A01 T00371045  RH  055%=      5-min Rain = 0
KPG1 130937Z 06014KT 04/M05 A302 RMK A01 T00371045  RH  055%=      5-min Rain = 0
KPG1 130938Z 05012KT 04/M05 A3021 RMK A01 T00371045  RH  055%=      5-min Rain = 0
KPG1 130939Z 06015KT 04/M05 A3021 RMK A01 T00361046  RH  055%=      5-min Rain = 0
KPG1 130940Z 06015KT 04/M05 A3021 RMK A01 T00361045  RH  055%=      5-min Rain = 0
KPG1 130941Z 05014KT 04/M05 A3021 RMK A01 T00361045  RH  055%=      5-min Rain = 0
KPG1 130942Z 05014KT 04/M05 A3021 RMK A01 T00361045  RH  055%=      5-min Rain = 0
KPG1 130943Z 05013KT 04/M05 A3021 RMK A01 T00361045  RH  055%=      5-min Rain = 0
KPG1 130944Z 05012KT 04/M05 A3021 RMK A01 T00371045  RH  055%=      5-min Rain = 0
KPG1 130945Z 05013KT 04/M04 A3021 RMK A01 T00371044  RH  055%=      5-min Rain = 0
KPG1 130946Z 06013KT 04/M04 A3021 RMK A01 T00371044  RH  055%=      5-min Rain = 0
KPG1 130947Z 05015KT 04/M04 A3021 RMK A01 T00371044  RH  055%=      5-min Rain = 0
KPG1 130948Z 05014KT 04/M04 A3021 RMK A01 T00371044  RH  055%=      5-min Rain = 0
KPG1 130949Z 05013KT 04/M04 A3021 RMK A01 T00371044  RH  055%=      5-min Rain = 0
KPG1 130950Z 05012KT 04/M04 A3021 RMK A01 T00371044  RH  055%=      5-min Rain = 0
KPG1 130951Z 04011KT 04/M04 A3021 RMK A01 T00371044  RH  055%=      5-min Rain = 0
KPG1 130952Z 05012KT 04/M04 A3021 RMK A01 T00371044  RH  056%=      5-min Rain = 0
KPG1 130953Z 04010KT 04/M04 A3021 RMK A01 T00371044  RH  056%=      5-min Rain = 0
KPG1 130954Z 04012KT 04/M04 A3021 RMK A01 T00361044  RH  056%=      5-min Rain = 0
KPG1 130955Z 05012KT 04/M04 A3021 RMK A01 T00361044  RH  056%=      5-min Rain = 0
KPG1 130956Z 04011KT 04/M04 A3021 RMK A01 T00361044  RH  056%=      5-min Rain = 0
KPG1 130957Z 03012KT 04/M04 A3021 RMK A01 T00361044  RH  056%=      5-min Rain = 0
KPG1 130958Z 03013KT 04/M04 A3021 RMK A01 T00361043  RH  056%=      5-min Rain = 0
KPG1 130959Z 04011KT 04/M04 A3021 RMK A01 T00361044  RH  056%=      5-min Rain = 0
KPG1 131000Z 03010KT 04/M04 A3021 RMK A01 T00351044  RH  056%=      5-min Rain = 0
KPG1 131001Z 03010KT 04/M04 A3021 RMK A01 T00351044  RH  056%=      5-min Rain = 0
KPG1 131002Z 04011KT 04/M04 A3021 RMK A01 T00351044  RH  056%=      5-min Rain = 0
KPG1 131003Z 04012KT 04/M04 A3021 RMK A01 T00351044  RH  056%=      5-min Rain = 0
KPG1 131004Z 03012KT 04/M04 A3021 RMK A01 T00351044  RH  056%=      5-min Rain = 0
KPG1 131005Z 04011KT 04/M04 A3021 RMK A01 T00351044  RH  056%=      5-min Rain = 0
KPG1 131006Z 03011KT 04/M04 A3021 RMK A01 T00351044  RH  056%=      5-min Rain = 0
KPG1 131007Z 03011KT 04/M04 A3021 RMK A01 T00351044  RH  056%=      5-min Rain = 0
KPG1 131008Z 03012KT 03/M04 A3021 RMK A01 T00341044  RH  057%=      5-min Rain = 0
KPG1 131009Z 03012KT 03/M04 A3021 RMK A01 T00341044  RH  057%=      5-min Rain = 0
KPG1 131010Z 03011KT 03/M04 A3021 RMK A01 T00341044  RH  057%=      5-min Rain = 0
KPG1 131011Z 02012KT 03/M05 A3021 RMK A01 T00331045  RH  057%=      5-min Rain = 0
KPG1 131012Z 03012KT 03/M05 A3021 RMK A01 T00321046  RH  057%=      5-min Rain = 0
KPG1 131013Z 03012KT 03/M05 A3021 RMK A01 T00321045  RH  057%=      5-min Rain = 0
KPG1 131014Z 03012KT 03/M04 A3021 RMK A01 T00321044  RH  057%=      5-min Rain = 0
KPG1 131015Z 03012KT 03/M04 A3021 RMK A01 T00331043  RH  057%=      5-min Rain = 0
KPG1 131016Z 05009KT 03/M04 A3021 RMK A01 T00331043  RH  057%=      5-min Rain = 0
KPG1 131017Z 03009KT 03/M04 A3021 RMK A01 T00331043  RH  057%=      5-min Rain = 0
KPG1 131018Z 04009KT 03/M04 A3021 RMK A01 T00331043  RH  057%=      5-min Rain = 0
KPG1 131019Z 05010KT 03/M04 A3021 RMK A01 T00321043  RH  058%=      5-min Rain = 0
KPG1 131020Z 05009KT 03/M04 A3021 RMK A01 T00321043  RH  058%=      5-min Rain = 0
KPG1 131021Z 05011KT 03/M04 A3021 RMK A01 T00331043  RH  058%=      5-min Rain = 0
KPG1 131022Z 06011KT 03/M04 A3021 RMK A01 T00331042  RH  058%=      5-min Rain = 0
KPG1 131023Z 06013KT 03/M04 A3021 RMK A01 T00341042  RH  058%=      5-min Rain = 0
KPG1 131024Z 06013KT 03/M04 A3021 RMK A01 T00341042  RH  058%=      5-min Rain = 0
KPG1 131025Z 05011KT 04/M04 A3021 RMK A01 T00351042  RH  057%=      5-min Rain = 0
KPG1 131026Z 04009KT 03/M04 A3021 RMK A01 T00341042  RH  057%=      5-min Rain = 0
KPG1 131027Z 04010KT 03/M04 A3021 RMK A01 T00341042  RH  057%=      5-min Rain = 0
KPG1 131028Z 03011KT 03/M04 A3021 RMK A01 T00341042  RH  058%=      5-min Rain = 0
KPG1 131029Z 05010KT 03/M04 A3021 RMK A01 T00341042  RH  057%=      5-min Rain = 0
KPG1 131030Z 06013KT 03/M04 A3021 RMK A01 T00331042  RH  058%=      5-min Rain = 0
KPG1 131031Z 05012KT 03/M04 A3021 RMK A01 T00331042  RH  058%=      5-min Rain = 0
KPG1 131032Z 06014KT 03/M04 A3021 RMK A01 T00331042  RH  058%=      5-min Rain = 0
KPG1 131033Z 05011KT 03/M04 A3021 RMK A01 T00331042  RH  058%=      5-min Rain = 0
KPG1 131034Z 05011KT 03/M04 A3021 RMK A01 T00331043  RH  058%=      5-min Rain = 0
KPG1 131035Z 05011KT 03/M04 A3021 RMK A01 T00331042  RH  058%=      5-min Rain = 0
KPG1 131036Z 05010KT 03/M04 A3021 RMK A01 T00331042  RH  058%=      5-min Rain = 0
KPG1 131037Z 06014KT 03/M04 A3021 RMK A01 T00321043  RH  058%=      5-min Rain = 0
KPG1 131038Z 06014KT 03/M04 A3021 RMK A01 T00331042  RH  058%=      5-min Rain = 0
KPG1 131039Z 06014KT 03/M04 A3021 RMK A01 T00341042  RH  058%=      5-min Rain = 0
KPG1 131040Z 06014KT 04/M04 A3021 RMK A01 T00351041  RH  057%=      5-min Rain = 0
KPG1 131041Z 06012KT 04/M04 A3021 RMK A01 T00351042  RH  057%=      5-min Rain = 0
KPG1 131042Z 07014KT 04/M04 A3021 RMK A01 T00351042  RH  057%=      5-min Rain = 0
KPG1 131043Z 06014KT 04/M04 A3021 RMK A01 T00351042  RH  057%=      5-min Rain = 0
KPG1 131044Z 06014KT 04/M04 A3021 RMK A01 T00361042  RH  057%=      5-min Rain = 0
KPG1 131045Z 06013KT 04/M04 A3021 RMK A01 T00361042  RH  057%=      5-min Rain = 0
KPG1 131046Z 05010KT 04/M04 A3021 RMK A01 T00351042  RH  057%=      5-min Rain = 0
KPG1 131047Z 04010KT 04/M04 A3021 RMK A01 T00351042  RH  057%=      5-min Rain = 0
KPG1 131048Z 06010KT 03/M04 A3021 RMK A01 T00341043  RH  057%=      5-min Rain = 0
KPG1 131049Z 06011KT 03/M04 A3021 RMK A01 T00331043  RH  057%=      5-min Rain = 0
KPG1 131050Z 05011KT 03/M04 A3021 RMK A01 T00331042  RH  058%=      5-min Rain = 0
KPG1 131051Z 05012KT 03/M04 A3021 RMK A01 T00331042  RH  058%=      5-min Rain = 0
KPG1 131052Z 05013KT 03/M04 A3021 RMK A01 T00331042  RH  058%=      5-min Rain = 0
KPG1 131053Z 05013KT 03/M04 A3021 RMK A01 T00331042  RH  058%=      5-min Rain = 0
KPG1 131054Z 05013KT 03/M04 A3021 RMK A01 T00331042  RH  058%=      5-min Rain = 0
KPG1 131055Z 05013KT 03/M04 A3021 RMK A01 T00331042  RH  058%=      5-min Rain = 0
KPG1 131056Z 05013KT 03/M04 A3021 RMK A01 T00331042  RH  058%=      5-min Rain = 0
KPG1 131057Z 05011KT 03/M04 A3021 RMK A01 T00331042  RH  058%=      5-min Rain = 0
KPG1 131058Z 05011KT 03/M04 A3021 RMK A01 T00331042  RH  058%=      5-min Rain = 0
KPG1 131059Z 05009KT 03/M04 A3021 RMK A01 T00321042  RH  058%=      5-min Rain = 0
KPG1 131100Z 05012KT 03/M04 A3021 RMK A01 T00321042  RH  058%=      5-min Rain = 0
KPG1 131101Z 05012KT 03/M04 A3021 RMK A01 T00321042  RH  058%=      5-min Rain = 0
KPG1 131102Z 06011KT 03/M04 A3021 RMK A01 T00331042  RH  058%=      5-min Rain = 0
KPG1 131103Z 06013KT 03/M04 A3021 RMK A01 T00321042  RH  058%=      5-min Rain = 0
KPG1 131104Z 06012KT 03/M04 A3021 RMK A01 T00331042  RH  058%=      5-min Rain = 0
KPG1 131105Z 05012KT 03/M04 A3021 RMK A01 T00331042  RH  058%=      5-min Rain = 0
KPG1 131106Z 05013KT 03/M04 A3022 RMK A01 T00331042  RH  058%=      5-min Rain = 0
KPG1 131107Z 06014KT 03/M04 A3022 RMK A01 T00331042  RH  058%=      5-min Rain = 0
KPG1 131108Z 05014KT 03/M04 A3022 RMK A01 T00331041  RH  058%=      5-min Rain = 0
KPG1 131109Z 05012KT 03/M04 A3022 RMK A01 T00331041  RH  058%=      5-min Rain = 0
KPG1 131110Z 04012KT 03/M04 A3022 RMK A01 T00331041  RH  058%=      5-min Rain = 0
KPG1 131111Z 05012KT 03/M04 A3022 RMK A01 T00331041  RH  059%=      5-min Rain = 0
KPG1 131112Z 05012KT 03/M04 A3022 RMK A01 T00331040  RH  059%=      5-min Rain = 0
KPG1 131113Z 04010KT 03/M04 A3022 RMK A01 T00331040  RH  059%=      5-min Rain = 0
KPG1 131114Z 04010KT 03/M04 A3022 RMK A01 T00331040  RH  059%=      5-min Rain = 0
KPG1 131115Z 04008KT 03/M04 A3022 RMK A01 T00321039  RH  059%=      5-min Rain = 0
KPG1 131116Z 04009KT 03/M04 A3022 RMK A01 T00321039  RH  060%=      5-min Rain = 0
KPG1 131117Z 03008KT 03/M04 A3022 RMK A01 T00321039  RH  060%=      5-min Rain = 0
KPG1 131118Z 02007KT 03/M04 A3022 RMK A01 T00321038  RH  060%=      5-min Rain = 0
KPG1 131119Z 02008KT 03/M04 A3022 RMK A01 T00321039  RH  060%=      5-min Rain = 0
KPG1 131120Z 03006KT 03/M04 A3022 RMK A01 T00311039  RH  060%=      5-min Rain = 0
KPG1 131121Z 05008KT 03/M04 A3022 RMK A01 T00311038  RH  060%=      5-min Rain = 0
KPG1 131122Z 05009KT 03/M04 A3022 RMK A01 T00311038  RH  060%=      5-min Rain = 0
KPG1 131123Z 05011KT 03/M04 A3022 RMK A01 T00321037  RH  061%=      5-min Rain = 0
KPG1 131124Z 05009KT 03/M04 A3022 RMK A01 T00311037  RH  061%=      5-min Rain = 0
KPG1 131125Z 05008KT 03/M04 A3022 RMK A01 T00321037  RH  061%=      5-min Rain = 0
KPG1 131126Z 06009KT 03/M04 A3022 RMK A01 T00311037  RH  061%=      5-min Rain = 0
KPG1 131127Z 05009KT 03/M04 A3022 RMK A01 T00311037  RH  061%=      5-min Rain = 0
KPG1 131128Z 06010KT 03/M04 A3022 RMK A01 T00311037  RH  061%=      5-min Rain = 0
KPG1 131129Z 06011KT 03/M04 A3022 RMK A01 T00311036  RH  061%=      5-min Rain = 0
KPG1 131130Z 05011KT 03/M04 A3022 RMK A01 T00311036  RH  061%=      5-min Rain = 0
KPG1 131131Z 05011KT 03/M04 A3022 RMK A01 T00311036  RH  061%=      5-min Rain = 0
KPG1 131132Z 05010KT 03/M04 A3022 RMK A01 T00311036  RH  061%=      5-min Rain = 0
KPG1 131133Z 05009KT 03/M04 A3022 RMK A01 T00311036  RH  061%=      5-min Rain = 0
KPG1 131134Z 06011KT 03/M04 A3022 RMK A01 T00311036  RH  061%=      5-min Rain = 0
KPG1 131135Z 06009KT 03/M04 A3022 RMK A01 T00321036  RH  061%=      5-min Rain = 0
KPG1 131136Z 06010KT 03/M04 A3022 RMK A01 T00321035  RH  061%=      5-min Rain = 0
KPG1 131137Z 06010KT 03/M04 A3022 RMK A01 T00311035  RH  061%=      5-min Rain = 0
KPG1 131138Z 06010KT 03/M04 A3022 RMK A01 T00311036  RH  061%=      5-min Rain = 0
KPG1 131139Z 06010KT 03/M04 A3022 RMK A01 T00311035  RH  062%=      5-min Rain = 0
KPG1 131140Z 06010KT 03/M04 A3022 RMK A01 T00311035  RH  062%=      5-min Rain = 0
KPG1 131141Z 06011KT 03/M04 A3022 RMK A01 T00321035  RH  062%=      5-min Rain = 0
KPG1 131142Z 06011KT 03/M04 A3022 RMK A01 T00321035  RH  062%=      5-min Rain = 0
KPG1 131143Z 06011KT 03/M04 A3022 RMK A01 T00321035  RH  061%=      5-min Rain = 0
KPG1 131144Z 06012KT 03/M04 A3022 RMK A01 T00321035  RH  061%=      5-min Rain = 0
KPG1 131145Z 06013KT 03/M04 A3022 RMK A01 T00321035  RH  061%=      5-min Rain = 0
KPG1 131146Z 07012KT 03/M03 A3022 RMK A01 T00331034  RH  061%=      5-min Rain = 0
KPG1 131147Z 06013KT 03/M03 A3022 RMK A01 T00321034  RH  061%=      5-min Rain = 0
KPG1 131148Z 06013KT 03/M04 A3022 RMK A01 T00321035  RH  062%=      5-min Rain = 0
KPG1 131149Z 06013KT 03/M03 A3022 RMK A01 T00321034  RH  062%=      5-min Rain = 0
KPG1 131150Z 07014KT 03/M03 A3022 RMK A01 T00321034  RH  062%=      5-min Rain = 0
KPG1 131151Z 07014KT 03/M03 A3022 RMK A01 T00331034  RH  062%=      5-min Rain = 0
KPG1 131152Z 07014KT 03/M03 A3022 RMK A01 T00331034  RH  061%=      5-min Rain = 0
KPG1 131153Z 06013KT 03/M03 A3022 RMK A01 T00341034  RH  061%=      5-min Rain = 0
KPG1 131154Z 06014KT 03/M04 A3022 RMK A01 T00341035  RH  061%=      5-min Rain = 0
KPG1 131155Z 07014KT 03/M04 A3022 RMK A01 T00341035  RH  061%=      5-min Rain = 0
KPG1 131156Z 06014KT 03/M04 A3022 RMK A01 T00341035  RH  061%=      5-min Rain = 0
KPG1 131157Z 07014KT 03/M04 A3022 RMK A01 T00341035  RH  061%=      5-min Rain = 0
KPG1 131158Z 07013KT 03/M04 A3022 RMK A01 T00331035  RH  061%=      5-min Rain = 0
KPG1 131159Z 07013KT 03/M03 A3022 RMK A01 T00331034  RH  061%=      5-min Rain = 0
KPG1 131200Z 07014KT 03/M03 A3023 RMK A01 T00331034  RH  062%=      5-min Rain = 0
KPG1 131201Z 06013KT 03/M03 A3023 RMK A01 T00321034  RH  062%=      5-min Rain = 0
KPG1 131202Z 06013KT 03/M03 A3023 RMK A01 T00321034  RH  062%=      5-min Rain = 0
KPG1 131203Z 06013KT 03/M03 A3023 RMK A01 T00321034  RH  062%=      5-min Rain = 0
KPG1 131204Z 07014KT 03/M03 A3023 RMK A01 T00321034  RH  062%=      5-min Rain = 0
KPG1 131205Z 06013KT 03/M03 A3023 RMK A01 T00311034  RH  062%=      5-min Rain = 0
KPG1 131206Z 06013KT 03/M03 A3023 RMK A01 T00311034  RH  062%=      5-min Rain = 0
KPG1 131207Z 06013KT 03/M03 A3023 RMK A01 T00311034  RH  062%=      5-min Rain = 0
KPG1 131208Z 06013KT 03/M03 A3023 RMK A01 T00301034  RH  063%=      5-min Rain = 0
KPG1 131209Z 06013KT 03/M03 A3023 RMK A01 T00301034  RH  063%=      5-min Rain = 0
KPG1 131210Z 06014KT 03/M03 A3023 RMK A01 T00301034  RH  063%=      5-min Rain = 0
KPG1 131211Z 06013KT 03/M03 A3023 RMK A01 T00311034  RH  063%=      5-min Rain = 0
KPG1 131212Z 06013KT 03/M03 A3023 RMK A01 T00311034  RH  062%=      5-min Rain = 0
KPG1 131213Z 06011KT 03/M03 A3023 RMK A01 T00311034  RH  062%=      5-min Rain = 0
KPG1 131214Z 05011KT 03/M03 A3023 RMK A01 T00311034  RH  062%=      5-min Rain = 0
KPG1 131215Z 06012KT 03/M03 A3023 RMK A01 T00301034  RH  063%=      5-min Rain = 0
KPG1 131216Z 06012KT 03/M03 A3023 RMK A01 T00301034  RH  063%=      5-min Rain = 0
KPG1 131217Z 06011KT 03/M03 A3023 RMK A01 T00301034  RH  063%=      5-min Rain = 0
KPG1 131218Z 05011KT 03/M03 A3023 RMK A01 T00301034  RH  063%=      5-min Rain = 0
KPG1 131219Z 05009KT 03/M03 A3023 RMK A01 T00301034  RH  063%=      5-min Rain = 0
KPG1 131220Z 05009KT 03/M04 A3023 RMK A01 T00301035  RH  062%=      5-min Rain = 0
KPG1 131221Z 05009KT 03/M04 A3023 RMK A01 T00301035  RH  062%=      5-min Rain = 0
KPG1 131222Z 05012KT 03/M04 A3023 RMK A01 T00311035  RH  062%=      5-min Rain = 0
KPG1 131223Z 05011KT 03/M04 A3023 RMK A01 T00321035  RH  062%=      5-min Rain = 0
KPG1 131224Z 05009KT 03/M04 A3023 RMK A01 T00321035  RH  062%=      5-min Rain = 0
KPG1 131225Z 05010KT 03/M04 A3023 RMK A01 T00321035  RH  061%=      5-min Rain = 0
KPG1 131226Z 05010KT 03/M04 A3023 RMK A01 T00321035  RH  061%=      5-min Rain = 0
KPG1 131227Z 05010KT 03/M04 A3023 RMK A01 T00321035  RH  061%=      5-min Rain = 0
KPG1 131228Z 05009KT 03/M04 A3023 RMK A01 T00321035  RH  061%=      5-min Rain = 0
KPG1 131229Z 04009KT 03/M04 A3023 RMK A01 T00321035  RH  061%=      5-min Rain = 0
KPG1 131230Z 04007KT 03/M04 A3023 RMK A01 T00321035  RH  061%=      5-min Rain = 0
KPG1 131231Z 04009KT 03/M04 A3023 RMK A01 T00321035  RH  061%=      5-min Rain = 0
KPG1 131232Z 04009KT 03/M04 A3023 RMK A01 T00331036  RH  061%=      5-min Rain = 0
KPG1 131233Z 04011KT 03/M04 A3023 RMK A01 T00331036  RH  060%=      5-min Rain = 0
KPG1 131234Z 04012KT 03/M04 A3023 RMK A01 T00331036  RH  061%=      5-min Rain = 0
KPG1 131235Z 04011KT 03/M04 A3023 RMK A01 T00331035  RH  061%=      5-min Rain = 0
KPG1 131236Z 04011KT 03/M04 A3023 RMK A01 T00331035  RH  061%=      5-min Rain = 0
KPG1 131237Z 04011KT 03/M03 A3023 RMK A01 T00331034  RH  061%=      5-min Rain = 0
KPG1 131238Z 04010KT 03/M03 A3023 RMK A01 T00331034  RH  061%=      5-min Rain = 0
KPG1 131239Z 05010KT 03/M03 A3023 RMK A01 T00331034  RH  061%=      5-min Rain = 0
KPG1 131240Z 05010KT 03/M03 A3023 RMK A01 T00331034  RH  061%=      5-min Rain = 0
KPG1 131241Z 05011KT 03/M03 A3023 RMK A01 T00331034  RH  061%=      5-min Rain = 0
KPG1 131242Z 05010KT 03/M03 A3023 RMK A01 T00331034  RH  062%=      5-min Rain = 0
KPG1 131243Z 04009KT 03/M03 A3023 RMK A01 T00321034  RH  062%=      5-min Rain = 0
KPG1 131244Z 04009KT 03/M03 A3023 RMK A01 T00321034  RH  062%=      5-min Rain = 0
KPG1 131245Z 04012KT 03/M03 A3023 RMK A01 T00331034  RH  061%=      5-min Rain = 0
KPG1 131246Z 04012KT 03/M03 A3023 RMK A01 T00331034  RH  062%=      5-min Rain = 0
KPG1 131247Z 04012KT 03/M03 A3023 RMK A01 T00331034  RH  062%=      5-min Rain = 0
KPG1 131248Z 04012KT 03/M03 A3023 RMK A01 T00321034  RH  062%=      5-min Rain = 0
KPG1 131249Z 04011KT 03/M03 A3023 RMK A01 T00321034  RH  062%=      5-min Rain = 0
KPG1 131250Z 04012KT 03/M03 A3023 RMK A01 T00321033  RH  062%=      5-min Rain = 0
KPG1 131251Z 04012KT 03/M03 A3023 RMK A01 T00321033  RH  062%=      5-min Rain = 0
KPG1 131252Z 03010KT 03/M03 A3023 RMK A01 T00321033  RH  062%=      5-min Rain = 0
KPG1 131253Z 03010KT 03/M03 A3023 RMK A01 T00311034  RH  062%=      5-min Rain = 0
KPG1 131254Z 03010KT 03/M03 A3023 RMK A01 T00311034  RH  062%=      5-min Rain = 0
KPG1 131255Z 03010KT 03/M03 A3024 RMK A01 T00311034  RH  062%=      5-min Rain = 0
KPG1 131256Z 03010KT 03/M03 A3024 RMK A01 T00311034  RH  062%=      5-min Rain = 0
KPG1 131257Z 03010KT 03/M03 A3024 RMK A01 T00311034  RH  063%=      5-min Rain = 0
KPG1 131258Z 02011KT 03/M03 A3024 RMK A01 T00311034  RH  063%=      5-min Rain = 0
KPG1 131259Z 02010KT 03/M03 A3024 RMK A01 T00301034  RH  063%=      5-min Rain = 0
KPG1 131300Z 02011KT 03/M03 A3024 RMK A01 T00301034  RH  063%=      5-min Rain = 0
KPG1 131301Z 02011KT 03/M03 A3024 RMK A01 T00291034  RH  063%=      5-min Rain = 0
KPG1 131302Z 02012KT 03/M03 A3024 RMK A01 T00291034  RH  063%=      5-min Rain = 0
KPG1 131303Z 02010KT 03/M03 A3024 RMK A01 T00291034  RH  063%=      5-min Rain = 0
KPG1 131304Z 03011KT 03/M03 A3024 RMK A01 T00281034  RH  064%=      5-min Rain = 0
KPG1 131305Z 03010KT 03/M03 A3024 RMK A01 T00281034  RH  064%=      5-min Rain = 0
KPG1 131306Z 03011KT 03/M03 A3024 RMK A01 T00281034  RH  064%=      5-min Rain = 0
KPG1 131307Z 02010KT 03/M03 A3024 RMK A01 T00281034  RH  064%=      5-min Rain = 0
KPG1 131308Z 02011KT 03/M03 A3025 RMK A01 T00281034  RH  064%=      5-min Rain = 0
KPG1 131309Z 02011KT 03/M03 A3025 RMK A01 T00281034  RH  064%=      5-min Rain = 0
KPG1 131310Z 02010KT 03/M03 A3025 RMK A01 T00281034  RH  064%=      5-min Rain = 0
KPG1 131311Z 02009KT 03/M03 A3025 RMK A01 T00291034  RH  064%=      5-min Rain = 0
KPG1 131312Z 02008KT 03/M03 A3025 RMK A01 T00281034  RH  064%=      5-min Rain = 0
KPG1 131313Z 02008KT 03/M03 A3025 RMK A01 T00281034  RH  064%=      5-min Rain = 0
KPG1 131314Z 02008KT 03/M03 A3025 RMK A01 T00281033  RH  064%=      5-min Rain = 0
KPG1 131315Z 02007KT 03/M03 A3026 RMK A01 T00291033  RH  064%=      5-min Rain = 0
KPG1 131316Z 02007KT 03/M03 A3026 RMK A01 T00291033  RH  064%=      5-min Rain = 0
KPG1 131317Z 02008KT 03/M03 A3026 RMK A01 T00291033  RH  064%=      5-min Rain = 0
KPG1 131318Z 01007KT 03/M03 A3026 RMK A01 T00291033  RH  064%=      5-min Rain = 0
KPG1 131319Z 01008KT 03/M03 A3026 RMK A01 T00291033  RH  064%=      5-min Rain = 0
KPG1 131320Z 01007KT 03/M03 A3026 RMK A01 T00291033  RH  064%=      5-min Rain = 0
KPG1 131321Z 01006KT 03/M03 A3026 RMK A01 T00291033  RH  064%=      5-min Rain = 0
KPG1 131322Z 02007KT 03/M03 A3026 RMK A01 T00281033  RH  064%=      5-min Rain = 0
KPG1 131323Z 02008KT 03/M03 A3026 RMK A01 T00281033  RH  064%=      5-min Rain = 0
KPG1 131324Z 03007KT 03/M03 A3026 RMK A01 T00281033  RH  064%=      5-min Rain = 0
KPG1 131325Z 02006KT 03/M03 A3026 RMK A01 T00281033  RH  064%=      5-min Rain = 0
KPG1 131326Z 02006KT 03/M03 A3026 RMK A01 T00281033  RH  064%=      5-min Rain = 0
KPG1 131327Z 02006KT 03/M03 A3026 RMK A01 T00281033  RH  064%=      5-min Rain = 0
KPG1 131328Z 01007KT 03/M03 A3026 RMK A01 T00281033  RH  064%=      5-min Rain = 0
KPG1 131329Z 01008KT 03/M03 A3026 RMK A01 T00281033  RH  064%=      5-min Rain = 0
KPG1 131330Z 01007KT 03/M03 A3026 RMK A01 T00281033  RH  064%=      5-min Rain = 0
KPG1 131331Z 02007KT 03/M03 A3026 RMK A01 T00281033  RH  064%=      5-min Rain = 0
KPG1 131332Z 02007KT 03/M03 A3026 RMK A01 T00281033  RH  064%=      5-min Rain = 0
KPG1 131333Z 01008KT 03/M03 A3026 RMK A01 T00281032  RH  065%=      5-min Rain = 0
KPG1 131334Z 01007KT 03/M03 A3026 RMK A01 T00281033  RH  065%=      5-min Rain = 0
KPG1 131335Z 01007KT 03/M03 A3026 RMK A01 T00281032  RH  065%=      5-min Rain = 0
KPG1 131336Z 01006KT 03/M03 A3026 RMK A01 T00281032  RH  065%=      5-min Rain = 0
KPG1 131337Z 01007KT 03/M03 A3026 RMK A01 T00281032  RH  065%=      5-min Rain = 0
KPG1 131338Z 02007KT 03/M03 A3026 RMK A01 T00281032  RH  065%=      5-min Rain = 0
KPG1 131339Z 02007KT 03/M03 A3026 RMK A01 T00281032  RH  065%=      5-min Rain = 0
KPG1 131340Z 01006KT 03/M03 A3026 RMK A01 T00281032  RH  065%=      5-min Rain = 0
KPG1 131341Z 01007KT 03/M03 A3026 RMK A01 T00281032  RH  065%=      5-min Rain = 0
KPG1 131342Z 02007KT 03/M03 A3026 RMK A01 T00281032  RH  065%=      5-min Rain = 0
KPG1 131343Z 02007KT 03/M03 A3026 RMK A01 T00281032  RH  065%=      5-min Rain = 0
KPG1 131344Z 02007KT 03/M03 A3026 RMK A01 T00281032  RH  065%=      5-min Rain = 0
KPG1 131345Z 01006KT 03/M03 A3026 RMK A01 T00281032  RH  065%=      5-min Rain = 0
KPG1 131346Z 02008KT 03/M03 A3026 RMK A01 T00281032  RH  065%=      5-min Rain = 0
KPG1 131347Z 02007KT 03/M03 A3027 RMK A01 T00281032  RH  065%=      5-min Rain = 0
KPG1 131348Z 02007KT 03/M03 A3027 RMK A01 T00291031  RH  064%=      5-min Rain = 0
KPG1 131349Z 02007KT 03/M03 A3027 RMK A01 T00291031  RH  064%=      5-min Rain = 0
KPG1 131350Z 01007KT 03/M03 A3027 RMK A01 T00291032  RH  064%=      5-min Rain = 0
KPG1 131351Z 01008KT 03/M03 A3027 RMK A01 T00291032  RH  064%=      5-min Rain = 0
KPG1 131352Z 03008KT 03/M03 A3027 RMK A01 T00291032  RH  064%=      5-min Rain = 0
KPG1 131353Z 02008KT 03/M03 A3027 RMK A01 T00301031  RH  064%=      5-min Rain = 0
KPG1 131354Z 02008KT 03/M03 A3027 RMK A01 T00301031  RH  064%=      5-min Rain = 0
KPG1 131355Z 01008KT 03/M03 A3027 RMK A01 T00301031  RH  064%=      5-min Rain = 0
KPG1 131356Z 01008KT 03/M03 A3027 RMK A01 T00311031  RH  064%=      5-min Rain = 0
KPG1 131357Z 02008KT 03/M03 A3027 RMK A01 T00311031  RH  064%=      5-min Rain = 0
KPG1 131358Z 01009KT 03/M03 A3027 RMK A01 T00311031  RH  064%=      5-min Rain = 0
KPG1 131359Z 01007KT 03/M03 A3027 RMK A01 T00311031  RH  064%=      5-min Rain = 0
KPG1 131400Z 01008KT 03/M03 A3027 RMK A01 T00311031  RH  064%=      5-min Rain = 0
KPG1 131401Z 02007KT 03/M03 A3027 RMK A01 T00321031  RH  063%=      5-min Rain = 0
KPG1 131402Z 02006KT 03/M03 A3027 RMK A01 T00321031  RH  063%=      5-min Rain = 0
KPG1 131403Z 01007KT 03/M03 A3027 RMK A01 T00331031  RH  063%=      5-min Rain = 0
KPG1 131404Z 01008KT 03/M03 A3027 RMK A01 T00331031  RH  063%=      5-min Rain = 0
KPG1 131405Z 02007KT 03/M03 A3027 RMK A01 T00331031  RH  063%=      5-min Rain = 0
KPG1 131406Z 01007KT 03/M03 A3027 RMK A01 T00331031  RH  063%=      5-min Rain = 0
KPG1 131407Z 01007KT 03/M03 A3027 RMK A01 T00331031  RH  063%=      5-min Rain = 0
KPG1 131408Z 01007KT 03/M03 A3027 RMK A01 T00331031  RH  063%=      5-min Rain = 0
KPG1 131409Z 01007KT 03/M03 A3027 RMK A01 T00331031  RH  063%=      5-min Rain = 0
KPG1 131410Z 01009KT 03/M03 A3027 RMK A01 T00331031  RH  063%=      5-min Rain = 0
KPG1 131411Z 01008KT 03/M03 A3027 RMK A01 T00331031  RH  063%=      5-min Rain = 0
KPG1 131412Z 01009KT 03/M03 A3027 RMK A01 T00331031  RH  063%=      5-min Rain = 0
KPG1 131413Z 01007KT 03/M03 A3027 RMK A01 T00341031  RH  063%=      5-min Rain = 0
KPG1 131414Z 02007KT 03/M03 A3027 RMK A01 T00341031  RH  063%=      5-min Rain = 0
KPG1 131415Z 01008KT 03/M03 A3027 RMK A01 T00341031  RH  063%=      5-min Rain = 0
KPG1 131416Z 01008KT 03/M03 A3027 RMK A01 T00341031  RH  062%=      5-min Rain = 0
KPG1 131417Z 01008KT 03/M03 A3027 RMK A01 T00341031  RH  062%=      5-min Rain = 0
KPG1 131418Z 02007KT 03/M03 A3027 RMK A01 T00341031  RH  062%=      5-min Rain = 0
KPG1 131419Z 04009KT 03/M03 A3027 RMK A01 T00341031  RH  062%=      5-min Rain = 0
KPG1 131420Z 04008KT 04/M03 A3027 RMK A01 T00351030  RH  062%=      5-min Rain = 0
KPG1 131421Z 03008KT 04/M03 A3027 RMK A01 T00351031  RH  062%=      5-min Rain = 0
KPG1 131422Z 03007KT 04/M03 A3027 RMK A01 T00361030  RH  062%=      5-min Rain = 0
KPG1 131423Z 03008KT 04/M03 A3027 RMK A01 T00361030  RH  062%=      5-min Rain = 0
KPG1 131424Z 04008KT 04/M03 A3027 RMK A01 T00371030  RH  061%=      5-min Rain = 0
KPG1 131425Z 04008KT 04/M03 A3027 RMK A01 T00381030  RH  061%=      5-min Rain = 0
KPG1 131426Z 04006KT 04/M03 A3027 RMK A01 T00381030  RH  061%=      5-min Rain = 0
KPG1 131427Z 04006KT 04/M03 A3028 RMK A01 T00391030  RH  061%=      5-min Rain = 0
KPG1 131428Z 04007KT 04/M03 A3028 RMK A01 T00401030  RH  060%=      5-min Rain = 0
KPG1 131429Z 04007KT 04/M03 A3028 RMK A01 T00401030  RH  060%=      5-min Rain = 0
KPG1 131430Z 03007KT 04/M03 A3028 RMK A01 T00401030  RH  060%=      5-min Rain = 0
KPG1 131431Z 02006KT 04/M03 A3028 RMK A01 T00401030  RH  060%=      5-min Rain = 0
KPG1 131432Z 03008KT 04/M03 A3028 RMK A01 T00411030  RH  060%=      5-min Rain = 0
KPG1 131433Z 04007KT 04/M03 A3029 RMK A01 T00411030  RH  060%=      5-min Rain = 0
KPG1 131434Z 04008KT 04/M03 A3029 RMK A01 T00411030  RH  060%=      5-min Rain = 0
KPG1 131435Z 04007KT 04/M03 A3029 RMK A01 T00411030  RH  060%=      5-min Rain = 0
KPG1 131436Z 04007KT 04/M03 A3029 RMK A01 T00421030  RH  060%=      5-min Rain = 0
KPG1 131437Z 04007KT 04/M03 A3029 RMK A01 T00431029  RH  060%=      5-min Rain = 0
KPG1 131438Z 05007KT 04/M03 A3029 RMK A01 T00441029  RH  059%=      5-min Rain = 0
KPG1 131439Z 03006KT 04/M03 A3029 RMK A01 T00441030  RH  059%=      5-min Rain = 0
KPG1 131440Z 04006KT 04/M03 A3029 RMK A01 T00441029  RH  059%=      5-min Rain = 0
KPG1 131441Z 03006KT 04/M03 A3029 RMK A01 T00441028  RH  059%=      5-min Rain = 0
KPG1 131442Z 04006KT 05/M03 A3029 RMK A01 T00451028  RH  059%=      5-min Rain = 0
KPG1 131443Z 03007KT 05/M03 A3029 RMK A01 T00451029  RH  059%=      5-min Rain = 0
KPG1 131444Z 03007KT 05/M03 A3029 RMK A01 T00461028  RH  059%=      5-min Rain = 0
KPG1 131445Z 03007KT 05/M03 A3029 RMK A01 T00461028  RH  059%=      5-min Rain = 0
KPG1 131446Z 02007KT 05/M03 A3029 RMK A01 T00461028  RH  059%=      5-min Rain = 0
KPG1 131447Z 03007KT 05/M03 A3029 RMK A01 T00461028  RH  058%=      5-min Rain = 0
KPG1 131448Z 03008KT 05/M03 A3029 RMK A01 T00471028  RH  058%=      5-min Rain = 0
KPG1 131449Z 03008KT 05/M03 A3029 RMK A01 T00471028  RH  058%=      5-min Rain = 0
KPG1 131450Z 03008KT 05/M03 A3029 RMK A01 T00481028  RH  058%=      5-min Rain = 0
KPG1 131451Z 03008KT 05/M03 A3029 RMK A01 T00481028  RH  058%=      5-min Rain = 0
KPG1 131452Z 04007KT 05/M03 A3029 RMK A01 T00481028  RH  058%=      5-min Rain = 0
KPG1 131453Z 03008KT 05/M03 A3029 RMK A01 T00491028  RH  058%=      5-min Rain = 0
KPG1 131454Z 04007KT 05/M03 A3029 RMK A01 T00491028  RH  057%=      5-min Rain = 0
KPG1 131455Z 03007KT 05/M03 A3029 RMK A01 T00491028  RH  057%=      5-min Rain = 0
KPG1 131456Z 04007KT 05/M03 A3029 RMK A01 T00501028  RH  057%=      5-min Rain = 0
KPG1 131457Z 04008KT 05/M03 A3029 RMK A01 T00511028  RH  057%=      5-min Rain = 0
KPG1 131458Z 04008KT 05/M03 A3029 RMK A01 T00511028  RH  057%=      5-min Rain = 0
KPG1 131459Z 04007KT 05/M03 A3029 RMK A01 T00511028  RH  057%=      5-min Rain = 0
KPG1 131500Z 04007KT 05/M03 A3029 RMK A01 T00511029  RH  056%=      5-min Rain = 0
KPG1 131501Z 04007KT 05/M03 A3029 RMK A01 T00521029  RH  056%=      5-min Rain = 0
KPG1 131502Z 04007KT 05/M03 A3029 RMK A01 T00511029  RH  056%=      5-min Rain = 0
KPG1 131503Z 02006KT 05/M03 A3029 RMK A01 T00511029  RH  056%=      5-min Rain = 0
KPG1 131504Z 03007KT 05/M03 A3029 RMK A01 T00521028  RH  056%=      5-min Rain = 0
KPG1 131505Z 04008KT 05/M03 A3029 RMK A01 T00541027  RH  056%=      5-min Rain = 0
KPG1 131506Z 05007KT 05/M03 A3029 RMK A01 T00541028  RH  055%=      5-min Rain = 0
KPG1 131507Z 04009KT 05/M03 A3029 RMK A01 T00541029  RH  055%=      5-min Rain = 0
KPG1 131508Z 04009KT 05/M03 A3029 RMK A01 T00531029  RH  055%=      5-min Rain = 0
KPG1 131509Z 05008KT 05/M03 A3029 RMK A01 T00531029  RH  055%=      5-min Rain = 0
KPG1 131510Z 05007KT 05/M03 A3029 RMK A01 T00541029  RH  055%=      5-min Rain = 0
KPG1 131511Z 06008KT 06/M03 A3029 RMK A01 T00551029  RH  055%=      5-min Rain = 0
KPG1 131512Z 05007KT 06/M03 A3029 RMK A01 T00551029  RH  055%=      5-min Rain = 0
KPG1 131513Z 06005KT 06/M03 A3029 RMK A01 T00561028  RH  055%=      5-min Rain = 0
KPG1 131514Z 05007KT 06/M03 A3029 RMK A01 T00591026  RH  054%=      5-min Rain = 0
KPG1 131515Z 05008KT 06/M03 A3029 RMK A01 T00591029  RH  053%=      5-min Rain = 0
KPG1 131516Z 04007KT 06/M03 A3029 RMK A01 T00571029  RH  054%=      5-min Rain = 0
KPG1 131517Z 05008KT 06/M03 A3029 RMK A01 T00571029  RH  054%=      5-min Rain = 0
KPG1 131518Z 06007KT 06/M03 A3029 RMK A01 T00561029  RH  054%=      5-min Rain = 0
KPG1 131519Z 05009KT 06/M03 A3029 RMK A01 T00561029  RH  054%=      5-min Rain = 0
KPG1 131520Z 05008KT 06/M03 A3029 RMK A01 T00551029  RH  054%=      5-min Rain = 0
KPG1 131521Z 05008KT 06/M03 A3029 RMK A01 T00551029  RH  055%=      5-min Rain = 0
KPG1 131522Z 05009KT 06/M03 A3029 RMK A01 T00551029  RH  055%=      5-min Rain = 0
KPG1 131523Z 05009KT 05/M03 A3029 RMK A01 T00541030  RH  055%=      5-min Rain = 0
KPG1 131524Z 05008KT 05/M03 A303 RMK A01 T00541030  RH  055%=      5-min Rain = 0
KPG1 131525Z 04006KT 05/M03 A303 RMK A01 T00541029  RH  055%=      5-min Rain = 0
KPG1 131526Z 05006KT 06/M03 A303 RMK A01 T00551029  RH  055%=      5-min Rain = 0
KPG1 131527Z 05006KT 06/M03 A303 RMK A01 T00561029  RH  054%=      5-min Rain = 0
KPG1 131528Z 05008KT 06/M03 A303 RMK A01 T00571029  RH  054%=      5-min Rain = 0
KPG1 131529Z 04007KT 06/M03 A303 RMK A01 T00561030  RH  054%=      5-min Rain = 0
KPG1 131530Z 04008KT 06/M03 A303 RMK A01 T00561030  RH  054%=      5-min Rain = 0
KPG1 131531Z 03009KT 06/M03 A303 RMK A01 T00561029  RH  054%=      5-min Rain = 0
KPG1 131532Z 03010KT 06/M03 A303 RMK A01 T00551030  RH  054%=      5-min Rain = 0
KPG1 131533Z 03010KT 05/M03 A303 RMK A01 T00541030  RH  055%=      5-min Rain = 0
KPG1 131534Z 03011KT 05/M03 A303 RMK A01 T00541030  RH  055%=      5-min Rain = 0
KPG1 131535Z 03011KT 05/M03 A303 RMK A01 T00531030  RH  055%=      5-min Rain = 0
KPG1 131536Z 03011KT 05/M03 A303 RMK A01 T00531030  RH  055%=      5-min Rain = 0
KPG1 131537Z 04009KT 05/M03 A303 RMK A01 T00531030  RH  055%=      5-min Rain = 0
KPG1 131538Z 04010KT 05/M03 A303 RMK A01 T00531030  RH  055%=      5-min Rain = 0
KPG1 131539Z 03010KT 05/M03 A303 RMK A01 T00541030  RH  055%=      5-min Rain = 0
KPG1 131540Z 03010KT 05/M03 A303 RMK A01 T00541030  RH  055%=      5-min Rain = 0
KPG1 131541Z 04009KT 05/M03 A303 RMK A01 T00541030  RH  055%=      5-min Rain = 0
KPG1 131542Z 03009KT 06/M03 A303 RMK A01 T00551030  RH  055%=      5-min Rain = 0
KPG1 131543Z 04010KT 06/M03 A303 RMK A01 T00571029  RH  054%=      5-min Rain = 0
KPG1 131544Z 04010KT 06/M03 A303 RMK A01 T00571030  RH  053%=      5-min Rain = 0
KPG1 131545Z 04010KT 06/M03 A303 RMK A01 T00571030  RH  053%=      5-min Rain = 0
KPG1 131546Z 04010KT 06/M03 A3031 RMK A01 T00571030  RH  053%=      5-min Rain = 0
KPG1 131547Z 04011KT 06/M03 A3031 RMK A01 T00581030  RH  053%=      5-min Rain = 0
KPG1 131548Z 04009KT 06/M03 A3031 RMK A01 T00571030  RH  053%=      5-min Rain = 0
KPG1 131549Z 04010KT 06/M03 A3031 RMK A01 T00591029  RH  053%=      5-min Rain = 0
KPG1 131550Z 03011KT 06/M03 A3031 RMK A01 T00601030  RH  053%=      5-min Rain = 0
KPG1 131551Z 05010KT 06/M03 A3031 RMK A01 T00591030  RH  053%=      5-min Rain = 0
KPG1 131552Z 05009KT 06/M03 A303 RMK A01 T00601029  RH  053%=      5-min Rain = 0
KPG1 131553Z 05010KT 06/M03 A3031 RMK A01 T00621029  RH  052%=      5-min Rain = 0
KPG1 131554Z 04011KT 06/M03 A3031 RMK A01 T00611030  RH  052%=      5-min Rain = 0
KPG1 131555Z 03010KT 06/M03 A3031 RMK A01 T00621029  RH  052%=      5-min Rain = 0
KPG1 131556Z 05008KT 06/M03 A3031 RMK A01 T00611029  RH  052%=      5-min Rain = 0
KPG1 131557Z 05009KT 06/M03 A3031 RMK A01 T00621029  RH  052%=      5-min Rain = 0
KPG1 131558Z 05011KT 06/M03 A3031 RMK A01 T00621030  RH  052%=      5-min Rain = 0
KPG1 131559Z 04011KT 06/M03 A3031 RMK A01 T00601031  RH  052%=      5-min Rain = 0
KPG1 131600Z 05011KT 06/M03 A3031 RMK A01 T00601031  RH  052%=      5-min Rain = 0
KPG1 131601Z 05010KT 06/M03 A3031 RMK A01 T00601031  RH  052%=      5-min Rain = 0
KPG1 131602Z 04008KT 06/M03 A3031 RMK A01 T00601031  RH  052%=      5-min Rain = 0
KPG1 131603Z 04009KT 06/M03 A3031 RMK A01 T00611030  RH  052%=      5-min Rain = 0
KPG1 131604Z 06010KT 06/M03 A3031 RMK A01 T00621029  RH  052%=      5-min Rain = 0
KPG1 131605Z 06008KT 06/M03 A3031 RMK A01 T00631029  RH  052%=      5-min Rain = 0
KPG1 131606Z 05008KT 07/M03 A3031 RMK A01 T00651028  RH  051%=      5-min Rain = 0
KPG1 131607Z 05009KT 07/M03 A3031 RMK A01 T00671028  RH  051%=      5-min Rain = 0
KPG1 131608Z 06008KT 07/M03 A3031 RMK A01 T00671030  RH  050%=      5-min Rain = 0
KPG1 131609Z 05007KT 07/M03 A3031 RMK A01 T00661029  RH  050%=      5-min Rain = 0
KPG1 131610Z 04008KT 07/M03 A3031 RMK A01 T00681029  RH  050%=      5-min Rain = 0
KPG1 131611Z 04008KT 07/M03 A3031 RMK A01 T00681029  RH  050%=      5-min Rain = 0
KPG1 131612Z 05008KT 07/M03 A3031 RMK A01 T00701028  RH  050%=      5-min Rain = 0
KPG1 131613Z 05010KT 07/M03 A3031 RMK A01 T00731028  RH  049%=      5-min Rain = 0
KPG1 131614Z 04009KT 07/M03 A3031 RMK A01 T00701030  RH  049%=      5-min Rain = 0
KPG1 131615Z 04009KT 07/M03 A3031 RMK A01 T00701029  RH  049%=      5-min Rain = 0
KPG1 131616Z 05008KT 07/M03 A3032 RMK A01 T00711029  RH  049%=      5-min Rain = 0
KPG1 131617Z 05008KT 07/M03 A3032 RMK A01 T00711030  RH  049%=      5-min Rain = 0
KPG1 131618Z 06008KT 07/M03 A3032 RMK A01 T00701030  RH  049%=      5-min Rain = 0
KPG1 131619Z 06009KT 07/M03 A3032 RMK A01 T00701030  RH  049%=      5-min Rain = 0
KPG1 131620Z 06010KT 07/M03 A3032 RMK A01 T00701030  RH  049%=      5-min Rain = 0
KPG1 131621Z 06009KT 07/M03 A3032 RMK A01 T00711030  RH  049%=      5-min Rain = 0
KPG1 131622Z 04008KT 07/M03 A3032 RMK A01 T00721028  RH  049%=      5-min Rain = 0
KPG1 131623Z 03008KT 07/M03 A3032 RMK A01 T00731029  RH  048%=      5-min Rain = 0
KPG1 131624Z 04008KT 07/M03 A3032 RMK A01 T00731029  RH  048%=      5-min Rain = 0
KPG1 131625Z 04007KT 07/M03 A3032 RMK A01 T00731030  RH  048%=      5-min Rain = 0
KPG1 131626Z 03007KT 08/M03 A3032 RMK A01 T00751028  RH  048%=      5-min Rain = 0
KPG1 131627Z 03006KT 08/M03 A3032 RMK A01 T00771027  RH  048%=      5-min Rain = 0
KPG1 131628Z 04006KT 08/M03 A3033 RMK A01 T00781028  RH  047%=      5-min Rain = 0
KPG1 131629Z 04005KT 08/M03 A3033 RMK A01 T00781029  RH  047%=      5-min Rain = 0
KPG1 131630Z 04006KT 08/M03 A3033 RMK A01 T00761030  RH  047%=      5-min Rain = 0
KPG1 131631Z 02007KT 08/M03 A3034 RMK A01 T00751029  RH  047%=      5-min Rain = 0
KPG1 131632Z 02007KT 08/M03 A3034 RMK A01 T00751030  RH  047%=      5-min Rain = 0
KPG1 131633Z 02006KT 08/M03 A3033 RMK A01 T00751031  RH  047%=      5-min Rain = 0
KPG1 131634Z 04006KT 07/M03 A3033 RMK A01 T00731031  RH  048%=      5-min Rain = 0
KPG1 131635Z 04005KT 07/M03 A3033 RMK A01 T00731031  RH  048%=      5-min Rain = 0
KPG1 131636Z 01006KT 07/M03 A3033 RMK A01 T00741029  RH  048%=      5-min Rain = 0
KPG1 131637Z 01006KT 08/M03 A3033 RMK A01 T00751030  RH  047%=      5-min Rain = 0
KPG1 131638Z 03005KT 08/M03 A3033 RMK A01 T00751030  RH  047%=      5-min Rain = 0
KPG1 131639Z 05007KT 08/M03 A3033 RMK A01 T00771029  RH  047%=      5-min Rain = 0
KPG1 131640Z 05007KT 08/M03 A3033 RMK A01 T00771029  RH  047%=      5-min Rain = 0
KPG1 131641Z 06006KT 08/M03 A3033 RMK A01 T00771030  RH  047%=      5-min Rain = 0
KPG1 131642Z 06007KT 08/M03 A3033 RMK A01 T00761030  RH  047%=      5-min Rain = 0
KPG1 131643Z 05007KT 08/M03 A3033 RMK A01 T00771029  RH  047%=      5-min Rain = 0
KPG1 131644Z 05007KT 08/M03 A3033 RMK A01 T00781029  RH  047%=      5-min Rain = 0
KPG1 131645Z 05006KT 08/M03 A3033 RMK A01 T00791029  RH  046%=      5-min Rain = 0
KPG1 131646Z 05006KT 08/M03 A3033 RMK A01 T00791028  RH  047%=      5-min Rain = 0
KPG1 131647Z 04007KT 08/M03 A3033 RMK A01 T00831027  RH  046%=      5-min Rain = 0
KPG1 131648Z 05007KT 08/M03 A3033 RMK A01 T00841028  RH  045%=      5-min Rain = 0
KPG1 131649Z 05006KT 09/M03 A3033 RMK A01 T00851027  RH  045%=      5-min Rain = 0
KPG1 131650Z 05006KT 09/M03 A3033 RMK A01 T00871027  RH  045%=      5-min Rain = 0
KPG1 131651Z 06006KT 09/M03 A3033 RMK A01 T00871028  RH  044%=      5-min Rain = 0
KPG1 131652Z 05006KT 09/M03 A3033 RMK A01 T00891026  RH  044%=      5-min Rain = 0
KPG1 131653Z 04006KT 09/M03 A3033 RMK A01 T00911026  RH  044%=      5-min Rain = 0
KPG1 131654Z 03005KT 09/M03 A3033 RMK A01 T00911027  RH  043%=      5-min Rain = 0
KPG1 131655Z 05005KT 09/M02 A3033 RMK A01 T00931024  RH  044%=      5-min Rain = 0
KPG1 131656Z 05006KT 09/M03 A3033 RMK A01 T00931028  RH  042%=      5-min Rain = 0
KPG1 131657Z 05006KT 09/M03 A3033 RMK A01 T00901029  RH  043%=      5-min Rain = 0
KPG1 131658Z 06003KT 09/M03 A3033 RMK A01 T00881029  RH  044%=      5-min Rain = 0
KPG1 131659Z 05003KT 09/M03 A3033 RMK A01 T00891027  RH  044%=      5-min Rain = 0
KPG1 131700Z 02006KT 09/M03 A3033 RMK A01 T00921026  RH  044%=      5-min Rain = 0
KPG1 131701Z 05006KT 09/M03 A3033 RMK A01 T00911028  RH  043%=      5-min Rain = 0
KPG1 131702Z 06006KT 09/M03 A3032 RMK A01 T00891029  RH  043%=      5-min Rain = 0
KPG1 131703Z 07006KT 09/M03 A3032 RMK A01 T00861031  RH  044%=      5-min Rain = 0
KPG1 131704Z 07005KT 09/M03 A3032 RMK A01 T00851029  RH  045%=      5-min Rain = 0
KPG1 131705Z 03006KT 09/M03 A3032 RMK A01 T00901026  RH  044%=      5-min Rain = 0
KPG1 131706Z 05005KT 09/M03 A3032 RMK A01 T00901028  RH  043%=      5-min Rain = 0
KPG1 131707Z 07006KT 09/M03 A3033 RMK A01 T00901028  RH  043%=      5-min Rain = 0
KPG1 131708Z 07004KT 09/M03 A3033 RMK A01 T00901028  RH  043%=      5-min Rain = 0
KPG1 131709Z 04004KT 09/M03 A3032 RMK A01 T00931025  RH  044%=      5-min Rain = 0
KPG1 131710Z 02005KT 10/M03 A3032 RMK A01 T00971025  RH  042%=      5-min Rain = 0
KPG1 131711Z 03005KT 10/M03 A3032 RMK A01 T00961028  RH  042%=      5-min Rain = 0
KPG1 131712Z 04003KT 09/M03 A3032 RMK A01 T00931028  RH  042%=      5-min Rain = 0
KPG1 131713Z 05005KT 09/M03 A3032 RMK A01 T00941028  RH  042%=      5-min Rain = 0
KPG1 131714Z 04004KT 09/M03 A3032 RMK A01 T00931028  RH  042%=      5-min Rain = 0
KPG1 131715Z 03007KT 10/M03 A3032 RMK A01 T00951026  RH  043%=      5-min Rain = 0
KPG1 131716Z 03007KT 10/M03 A3032 RMK A01 T00961027  RH  042%=      5-min Rain = 0
KPG1 131717Z 03004KT 09/M03 A3032 RMK A01 T00941029  RH  042%=      5-min Rain = 0
KPG1 131718Z 04004KT 09/M03 A3032 RMK A01 T00941027  RH  043%=      5-min Rain = 0
KPG1 131719Z 04005KT 10/M03 A3032 RMK A01 T00961026  RH  042%=      5-min Rain = 0
KPG1 131720Z 02004KT 10/M03 A3032 RMK A01 T00951028  RH  042%=      5-min Rain = 0
KPG1 131721Z 02004KT 10/M03 A3032 RMK A01 T00961026  RH  042%=      5-min Rain = 0
KPG1 131722Z 03004KT 10/M03 A3032 RMK A01 T00971026  RH  042%=      5-min Rain = 0
KPG1 131723Z 02003KT 10/M03 A3032 RMK A01 T00981027  RH  042%=      5-min Rain = 0
KPG1 131724Z 04003KT 10/M03 A3032 RMK A01 T00971028  RH  041%=      5-min Rain = 0
KPG1 131725Z 05004KT 10/M03 A3032 RMK A01 T00971027  RH  042%=      5-min Rain = 0
KPG1 131726Z 05004KT 10/M03 A3032 RMK A01 T00971028  RH  042%=      5-min Rain = 0
KPG1 131727Z 07004KT 10/M03 A3032 RMK A01 T00961028  RH  042%=      5-min Rain = 0
KPG1 131728Z 07004KT 10/M03 A3032 RMK A01 T00961028  RH  042%=      5-min Rain = 0
KPG1 131729Z 01005KT 10/M02 A3032 RMK A01 T01001024  RH  042%=      5-min Rain = 0
KPG1 131730Z 00005KT 10/M03 A3032 RMK A01 T01021025  RH  041%=      5-min Rain = 0
KPG1 131731Z 01006KT 10/M03 A3032 RMK A01 T01011026  RH  041%=      5-min Rain = 0
KPG1 131732Z 02005KT 10/M03 A3032 RMK A01 T01001028  RH  041%=      5-min Rain = 0
KPG1 131733Z 03004KT 10/M03 A3032 RMK A01 T00981027  RH  041%=      5-min Rain = 0
KPG1 131734Z 04003KT 10/M03 A3032 RMK A01 T00991027  RH  041%=      5-min Rain = 0
KPG1 131735Z 01003KT 10/M03 A3032 RMK A01 T00991027  RH  041%=      5-min Rain = 0
KPG1 131736Z 04005KT 10/M03 A3032 RMK A01 T00991026  RH  041%=      5-min Rain = 0
KPG1 131737Z 04005KT 10/M03 A3032 RMK A01 T01021025  RH  041%=      5-min Rain = 0
KPG1 131738Z 05004KT 10/M03 A3032 RMK A01 T01041025  RH  040%=      5-min Rain = 0
KPG1 131739Z 04006KT 10/M03 A3032 RMK A01 T01041025  RH  040%=      5-min Rain = 0
KPG1 131740Z 03006KT 11/M02 A3032 RMK A01 T01071024  RH  040%=      5-min Rain = 0
KPG1 131741Z 02005KT 11/M03 A3032 RMK A01 T01071025  RH  040%=      5-min Rain = 0
KPG1 131742Z 01005KT 11/M03 A3032 RMK A01 T01061026  RH  040%=      5-min Rain = 0
KPG1 131743Z 03005KT 11/M02 A3032 RMK A01 T01061024  RH  040%=      5-min Rain = 0
KPG1 131744Z 00006KT 11/M02 A3032 RMK A01 T01081024  RH  040%=      5-min Rain = 0
KPG1 131745Z 01005KT 11/M03 A3032 RMK A01 T01071026  RH  039%=      5-min Rain = 0
KPG1 131746Z 03006KT 11/M03 A3032 RMK A01 T01071025  RH  040%=      5-min Rain = 0
KPG1 131747Z 05006KT 11/M03 A3031 RMK A01 T01061025  RH  040%=      5-min Rain = 0
KPG1 131748Z 04006KT 11/M03 A3031 RMK A01 T01071025  RH  040%=      5-min Rain = 0
KPG1 131749Z 03004KT 11/M03 A3031 RMK A01 T01081025  RH  039%=      5-min Rain = 0
KPG1 131750Z 04005KT 11/M03 A3031 RMK A01 T01081025  RH  039%=      5-min Rain = 0
KPG1 131751Z 04006KT 11/M02 A3031 RMK A01 T01081024  RH  039%=      5-min Rain = 0
KPG1 131752Z 02006KT 11/M02 A3031 RMK A01 T01121023  RH  039%=      5-min Rain = 0
KPG1 131753Z 05006KT 11/M02 A3031 RMK A01 T01141022  RH  039%=      5-min Rain = 0
KPG1 131754Z 06005KT 12/M02 A3031 RMK A01 T01161022  RH  038%=      5-min Rain = 0
KPG1 131755Z 07007KT 12/M02 A3031 RMK A01 T01161023  RH  038%=      5-min Rain = 0
KPG1 131756Z 06007KT 11/M03 A3031 RMK A01 T01131026  RH  038%=      5-min Rain = 0
KPG1 131757Z 06005KT 11/M03 A3031 RMK A01 T01121025  RH  038%=      5-min Rain = 0
KPG1 131758Z 06006KT 11/M02 A303 RMK A01 T01141022  RH  039%=      5-min Rain = 0
KPG1 131759Z 05006KT 12/M02 A303 RMK A01 T01151022  RH  038%=      5-min Rain = 0
KPG1 131800Z 05005KT 12/M02 A303 RMK A01 T01151024  RH  038%=      5-min Rain = 0
KPG1 131801Z 05008KT 11/M02 A303 RMK A01 T01141024  RH  038%=      5-min Rain = 0
KPG1 131802Z 06009KT 11/M02 A303 RMK A01 T01131024  RH  038%=      5-min Rain = 0
KPG1 131803Z 06009KT 11/M03 A303 RMK A01 T01121025  RH  038%=      5-min Rain = 0
KPG1 131804Z 07008KT 11/M02 A303 RMK A01 T01111024  RH  039%=      5-min Rain = 0
KPG1 131805Z 07006KT 11/M02 A303 RMK A01 T01111024  RH  039%=      5-min Rain = 0
KPG1 131806Z 04005KT 11/M02 A303 RMK A01 T01141021  RH  039%=      5-min Rain = 0
KPG1 131807Z 04007KT 12/M02 A303 RMK A01 T01171021  RH  038%=      5-min Rain = 0
KPG1 131808Z 05009KT 12/M02 A303 RMK A01 T01171022  RH  038%=      5-min Rain = 0
KPG1 131809Z 04008KT 12/M02 A3031 RMK A01 T01171023  RH  038%=      5-min Rain = 0
KPG1 131810Z 05007KT 12/M02 A303 RMK A01 T01171023  RH  038%=      5-min Rain = 0
KPG1 131811Z 07008KT 12/M02 A303 RMK A01 T01191021  RH  038%=      5-min Rain = 0
KPG1 131812Z 04008KT 12/M02 A303 RMK A01 T01191023  RH  037%=      5-min Rain = 0
KPG1 131813Z 03008KT 12/M02 A303 RMK A01 T01161024  RH  038%=      5-min Rain = 0
KPG1 131814Z 03007KT 12/M02 A303 RMK A01 T01151024  RH  038%=      5-min Rain = 0
KPG1 131815Z 06007KT 11/M02 A303 RMK A01 T01141023  RH  038%=      5-min Rain = 0
KPG1 131816Z 03009KT 12/M02 A303 RMK A01 T01161022  RH  038%=      5-min Rain = 0
KPG1 131817Z 05010KT 12/M02 A303 RMK A01 T01151023  RH  038%=      5-min Rain = 0
KPG1 131818Z 06008KT 11/M02 A303 RMK A01 T01141023  RH  038%=      5-min Rain = 0
KPG1 131819Z 05006KT 11/M02 A303 RMK A01 T01141022  RH  038%=      5-min Rain = 0
KPG1 131820Z 04008KT 12/M02 A303 RMK A01 T01171020  RH  038%=      5-min Rain = 0
KPG1 131821Z 05009KT 12/M02 A3029 RMK A01 T01171022  RH  038%=      5-min Rain = 0
KPG1 131822Z 05009KT 12/M02 A3029 RMK A01 T01151023  RH  038%=      5-min Rain = 0
KPG1 131823Z 05009KT 11/M02 A3029 RMK A01 T01141022  RH  038%=      5-min Rain = 0
KPG1 131824Z 06010KT 11/M02 A3029 RMK A01 T01131023  RH  039%=      5-min Rain = 0
KPG1 131825Z 06009KT 11/M02 A3029 RMK A01 T01131021  RH  039%=      5-min Rain = 0
KPG1 131826Z 06008KT 12/M02 A3029 RMK A01 T01161020  RH  039%=      5-min Rain = 0
KPG1 131827Z 06009KT 12/M02 A3029 RMK A01 T01171020  RH  038%=      5-min Rain = 0
KPG1 131828Z 07006KT 12/M02 A3029 RMK A01 T01171020  RH  038%=      5-min Rain = 0
KPG1 131829Z 07006KT 12/M02 A3029 RMK A01 T01181019  RH  038%=      5-min Rain = 0
KPG1 131830Z 05008KT 12/M02 A303 RMK A01 T01181021  RH  038%=      5-min Rain = 0
KPG1 131831Z 05008KT 12/M02 A303 RMK A01 T01171020  RH  038%=      5-min Rain = 0
KPG1 131832Z 05007KT 12/M02 A303 RMK A01 T01171020  RH  038%=      5-min Rain = 0
KPG1 131833Z 06006KT 12/M02 A303 RMK A01 T01171020  RH  039%=      5-min Rain = 0
KPG1 131834Z 06007KT 12/M02 A303 RMK A01 T01201018  RH  038%=      5-min Rain = 0
KPG1 131835Z 05008KT 12/M02 A303 RMK A01 T01201019  RH  038%=      5-min Rain = 0
KPG1 131836Z 07007KT 12/M02 A303 RMK A01 T01201019  RH  038%=      5-min Rain = 0
KPG1 131837Z 07008KT 12/M02 A3029 RMK A01 T01191019  RH  038%=      5-min Rain = 0
KPG1 131838Z 07008KT 12/M02 A3029 RMK A01 T01191019  RH  038%=      5-min Rain = 0
KPG1 131839Z 06008KT 12/M02 A3029 RMK A01 T01221017  RH  038%=      5-min Rain = 0
KPG1 131840Z 07007KT 12/M02 A3029 RMK A01 T01211018  RH  038%=      5-min Rain = 0
KPG1 131841Z 06008KT 12/M02 A3029 RMK A01 T01221017  RH  038%=      5-min Rain = 0
KPG1 131842Z 05008KT 12/M02 A3029 RMK A01 T01201020  RH  038%=      5-min Rain = 0
KPG1 131843Z 05008KT 12/M02 A3029 RMK A01 T01171020  RH  038%=      5-min Rain = 0
KPG1 131844Z 06008KT 12/M02 A3029 RMK A01 T01171019  RH  039%=      5-min Rain = 0
KPG1 131845Z 06008KT 12/M02 A3029 RMK A01 T01181019  RH  039%=      5-min Rain = 0
KPG1 131846Z 06007KT 12/M02 A3029 RMK A01 T01181019  RH  038%=      5-min Rain = 0
KPG1 131847Z 06007KT 12/M02 A3029 RMK A01 T01171019  RH  039%=      5-min Rain = 0
KPG1 131848Z 07008KT 12/M02 A3029 RMK A01 T01191018  RH  039%=      5-min Rain = 0
KPG1 131849Z 07008KT 12/M02 A3029 RMK A01 T01181019  RH  038%=      5-min Rain = 0
KPG1 131850Z 06007KT 12/M02 A3029 RMK A01 T01171019  RH  039%=      5-min Rain = 0
KPG1 131851Z 06008KT 12/M02 A3029 RMK A01 T01161019  RH  039%=      5-min Rain = 0
KPG1 131852Z 06009KT 12/M02 A3029 RMK A01 T01181018  RH  039%=      5-min Rain = 0
KPG1 131853Z 05008KT 12/M02 A3029 RMK A01 T01191018  RH  038%=      5-min Rain = 0
KPG1 131854Z 05008KT 12/M02 A3029 RMK A01 T01171019  RH  039%=      5-min Rain = 0
KPG1 131855Z 06006KT 12/M02 A3029 RMK A01 T01171019  RH  039%=      5-min Rain = 0
KPG1 131856Z 05007KT 12/M02 A3029 RMK A01 T01181018  RH  039%=      5-min Rain = 0
KPG1 131857Z 04008KT 12/M02 A3029 RMK A01 T01181018  RH  039%=      5-min Rain = 0
KPG1 131858Z 06010KT 12/M02 A3028 RMK A01 T01181019  RH  039%=      5-min Rain = 0
KPG1 131859Z 05009KT 12/M02 A3028 RMK A01 T01171019  RH  039%=      5-min Rain = 0
KPG1 131900Z 04009KT 12/M02 A3028 RMK A01 T01161018  RH  039%=      5-min Rain = 0
KPG1 131901Z 04008KT 12/M02 A3028 RMK A01 T01171018  RH  039%=      5-min Rain = 0
KPG1 131902Z 06010KT 12/M02 A3028 RMK A01 T01171018  RH  039%=      5-min Rain = 0
KPG1 131903Z 05009KT 12/M02 A3028 RMK A01 T01161019  RH  039%=      5-min Rain = 0
KPG1 131904Z 05009KT 12/M02 A3028 RMK A01 T01161018  RH  039%=      5-min Rain = 0
KPG1 131905Z 05008KT 12/M02 A3028 RMK A01 T01161018  RH  039%=      5-min Rain = 0
KPG1 131906Z 04008KT 12/M02 A3028 RMK A01 T01171018  RH  039%=      5-min Rain = 0
KPG1 131907Z 03009KT 12/M02 A3028 RMK A01 T01181017  RH  039%=      5-min Rain = 0
KPG1 131908Z 03009KT 12/M02 A3028 RMK A01 T01191017  RH  039%=      5-min Rain = 0
KPG1 131909Z 04009KT 12/M02 A3028 RMK A01 T01201017  RH  039%=      5-min Rain = 0
KPG1 131910Z 04010KT 12/M02 A3028 RMK A01 T01191018  RH  038%=      5-min Rain = 0
KPG1 131911Z 03010KT 12/M02 A3028 RMK A01 T01191018  RH  039%=      5-min Rain = 0
KPG1 131912Z 05008KT 12/M02 A3028 RMK A01 T01201017  RH  039%=      5-min Rain = 0
KPG1 131913Z 03008KT 12/M02 A3028 RMK A01 T01211017  RH  038%=      5-min Rain = 0
KPG1 131914Z 01009KT 12/M02 A3028 RMK A01 T01211017  RH  038%=      5-min Rain = 0
KPG1 131915Z 01009KT 12/M02 A3028 RMK A01 T01211017  RH  038%=      5-min Rain = 0
KPG1 131916Z 02008KT 12/M02 A3028 RMK A01 T01211017  RH  038%=      5-min Rain = 0
KPG1 131917Z 03008KT 12/M02 A3028 RMK A01 T01221017  RH  038%=      5-min Rain = 0
KPG1 131918Z 02010KT 12/M02 A3028 RMK A01 T01211018  RH  038%=      5-min Rain = 0
KPG1 131919Z 01008KT 12/M02 A3028 RMK A01 T01191018  RH  038%=      5-min Rain = 0
KPG1 131920Z 01008KT 12/M02 A3028 RMK A01 T01181018  RH  039%=      5-min Rain = 0
KPG1 131921Z 02008KT 12/M02 A3028 RMK A01 T01201016  RH  039%=      5-min Rain = 0
KPG1 131922Z 03009KT 12/M02 A3028 RMK A01 T01221016  RH  038%=      5-min Rain = 0
KPG1 131923Z 04009KT 12/M02 A3028 RMK A01 T01231016  RH  038%=      5-min Rain = 0
KPG1 131924Z 04009KT 12/M02 A3028 RMK A01 T01231017  RH  038%=      5-min Rain = 0
KPG1 131925Z 04007KT 12/M02 A3028 RMK A01 T01221017  RH  038%=      5-min Rain = 0
KPG1 131926Z 05008KT 12/M02 A3027 RMK A01 T01221017  RH  038%=      5-min Rain = 0
KPG1 131927Z 05008KT 12/M02 A3027 RMK A01 T01231016  RH  038%=      5-min Rain = 0
KPG1 131928Z 05008KT 12/M02 A3027 RMK A01 T01241016  RH  038%=      5-min Rain = 0
KPG1 131929Z 05009KT 12/M02 A3027 RMK A01 T01241016  RH  038%=      5-min Rain = 0
KPG1 131930Z 05009KT 12/M02 A3027 RMK A01 T01241016  RH  038%=      5-min Rain = 0
KPG1 131931Z 04010KT 13/M02 A3027 RMK A01 T01251016  RH  038%=      5-min Rain = 0
KPG1 131932Z 04009KT 13/M02 A3027 RMK A01 T01251016  RH  037%=      5-min Rain = 0
KPG1 131933Z 04009KT 13/M02 A3027 RMK A01 T01251016  RH  037%=      5-min Rain = 0
KPG1 131934Z 04009KT 12/M02 A3027 RMK A01 T01241017  RH  038%=      5-min Rain = 0
KPG1 131935Z 04009KT 13/M02 A3027 RMK A01 T01251016  RH  038%=      5-min Rain = 0
KPG1 131936Z 05008KT 12/M02 A3027 RMK A01 T01241016  RH  038%=      5-min Rain = 0
KPG1 131937Z 05009KT 13/M01 A3027 RMK A01 T01271014  RH  038%=      5-min Rain = 0
KPG1 131938Z 04008KT 13/M02 A3027 RMK A01 T01281015  RH  037%=      5-min Rain = 0
KPG1 131939Z 04007KT 13/M01 A3027 RMK A01 T01301014  RH  037%=      5-min Rain = 0
KPG1 131940Z 03008KT 13/M01 A3027 RMK A01 T01321014  RH  036%=      5-min Rain = 0
KPG1 131941Z 03009KT 13/M02 A3027 RMK A01 T01301016  RH  036%=      5-min Rain = 0
KPG1 131942Z 03009KT 13/M02 A3027 RMK A01 T01291016  RH  037%=      5-min Rain = 0
KPG1 131943Z 03008KT 13/M02 A3027 RMK A01 T01271016  RH  037%=      5-min Rain = 0
KPG1 131944Z 04008KT 13/M02 A3027 RMK A01 T01261016  RH  037%=      5-min Rain = 0
KPG1 131945Z 04008KT 13/M02 A3027 RMK A01 T01271015  RH  037%=      5-min Rain = 0
KPG1 131946Z 03008KT 13/M02 A3027 RMK A01 T01271015  RH  037%=      5-min Rain = 0
KPG1 131947Z 04009KT 13/M02 A3027 RMK A01 T01271015  RH  037%=      5-min Rain = 0
KPG1 131948Z 02007KT 13/M02 A3027 RMK A01 T01281015  RH  037%=      5-min Rain = 0
KPG1 131949Z 03009KT 13/M01 A3027 RMK A01 T01291014  RH  037%=      5-min Rain = 0
KPG1 131950Z 03009KT 13/M01 A3026 RMK A01 T01301014  RH  037%=      5-min Rain = 0
KPG1 131951Z 03007KT 13/M01 A3026 RMK A01 T01311014  RH  037%=      5-min Rain = 0
KPG1 131952Z 04007KT 13/M01 A3026 RMK A01 T01341013  RH  036%=      5-min Rain = 0
KPG1 131953Z 04007KT 14/M01 A3026 RMK A01 T01381011  RH  036%=      5-min Rain = 0
KPG1 131954Z 04008KT 14/M01 A3026 RMK A01 T01401012  RH  035%=      5-min Rain = 0
KPG1 131955Z 03007KT 14/M01 A3026 RMK A01 T01391013  RH  035%=      5-min Rain = 0
KPG1 131956Z 04007KT 14/M01 A3026 RMK A01 T01381013  RH  035%=      5-min Rain = 0
KPG1 131957Z 04006KT 14/M01 A3026 RMK A01 T01401012  RH  035%=      5-min Rain = 0
KPG1 131958Z 05007KT 14/M01 A3026 RMK A01 T01441010  RH  035%=      5-min Rain = 0
KPG1 131959Z 06008KT 14/M01 A3026 RMK A01 T01441013  RH  034%=      5-min Rain = 0
KPG1 132000Z 07009KT 14/M02 A3026 RMK A01 T01401015  RH  034%=      5-min Rain = 0
KPG1 132001Z 07009KT 14/M02 A3025 RMK A01 T01371015  RH  035%=      5-min Rain = 0
KPG1 132002Z 06010KT 14/M02 A3025 RMK A01 T01361015  RH  035%=      5-min Rain = 0
KPG1 132003Z 06009KT 14/M01 A3025 RMK A01 T01351014  RH  036%=      5-min Rain = 0
KPG1 132004Z 05009KT 14/M01 A3025 RMK A01 T01351014  RH  036%=      5-min Rain = 0
KPG1 132005Z 06008KT 14/M01 A3025 RMK A01 T01361013  RH  036%=      5-min Rain = 0
KPG1 132006Z 06007KT 14/M01 A3025 RMK A01 T01371012  RH  036%=      5-min Rain = 0
KPG1 132007Z 05009KT 14/M01 A3025 RMK A01 T01391012  RH  035%=      5-min Rain = 0
KPG1 132008Z 05009KT 14/M01 A3025 RMK A01 T01391014  RH  035%=      5-min Rain = 0
KPG1 132009Z 05008KT 14/M01 A3025 RMK A01 T01371014  RH  035%=      5-min Rain = 0
KPG1 132010Z 06007KT 14/M01 A3025 RMK A01 T01361014  RH  035%=      5-min Rain = 0
KPG1 132011Z 05008KT 14/M01 A3025 RMK A01 T01371013  RH  035%=      5-min Rain = 0
KPG1 132012Z 04009KT 14/M01 A3025 RMK A01 T01391012  RH  035%=      5-min Rain = 0
KPG1 132013Z 04009KT 14/M01 A3025 RMK A01 T01381013  RH  035%=      5-min Rain = 0
KPG1 132014Z 05008KT 14/M01 A3024 RMK A01 T01381013  RH  035%=      5-min Rain = 0
KPG1 132015Z 05008KT 14/M01 A3024 RMK A01 T01411010  RH  035%=      5-min Rain = 0
KPG1 132016Z 03009KT 14/M01 A3024 RMK A01 T01431012  RH  035%=      5-min Rain = 0
KPG1 132017Z 02009KT 14/M01 A3024 RMK A01 T01411013  RH  034%=      5-min Rain = 0
KPG1 132018Z 03008KT 14/M01 A3024 RMK A01 T01401013  RH  035%=      5-min Rain = 0
KPG1 132019Z 04008KT 14/M01 A3024 RMK A01 T01411012  RH  035%=      5-min Rain = 0
KPG1 132020Z 05008KT 14/M01 A3025 RMK A01 T01421012  RH  035%=      5-min Rain = 0
KPG1 132021Z 04009KT 14/M01 A3025 RMK A01 T01421013  RH  034%=      5-min Rain = 0
KPG1 132022Z 06009KT 14/M01 A3025 RMK A01 T01411013  RH  035%=      5-min Rain = 0
KPG1 132023Z 06006KT 14/M01 A3025 RMK A01 T01411013  RH  034%=      5-min Rain = 0
KPG1 132024Z 04007KT 14/M01 A3025 RMK A01 T01401013  RH  035%=      5-min Rain = 0
KPG1 132025Z 05008KT 14/M01 A3025 RMK A01 T01401013  RH  035%=      5-min Rain = 0
KPG1 132026Z 05008KT 14/M01 A3025 RMK A01 T01411013  RH  035%=      5-min Rain = 0
KPG1 132027Z 05007KT 14/M01 A3025 RMK A01 T01411012  RH  035%=      5-min Rain = 0
KPG1 132028Z 06007KT 14/M01 A3025 RMK A01 T01431011  RH  035%=      5-min Rain = 0
KPG1 132029Z 06009KT 14/M01 A3025 RMK A01 T01441011  RH  034%=      5-min Rain = 0
KPG1 132030Z 06009KT 14/M01 A3025 RMK A01 T01431013  RH  034%=      5-min Rain = 0
KPG1 132031Z 06006KT 14/M01 A3025 RMK A01 T01401013  RH  035%=      5-min Rain = 0
KPG1 132032Z 07009KT 14/M01 A3024 RMK A01 T01401012  RH  035%=      5-min Rain = 0
KPG1 132033Z 07009KT 14/M01 A3024 RMK A01 T01421011  RH  035%=      5-min Rain = 0
KPG1 132034Z 07008KT 14/M01 A3024 RMK A01 T01431012  RH  034%=      5-min Rain = 0
KPG1 132035Z 06008KT 14/M01 A3024 RMK A01 T01431012  RH  034%=      5-min Rain = 0
KPG1 132036Z 05007KT 14/M01 A3024 RMK A01 T01441011  RH  034%=      5-min Rain = 0
KPG1 132037Z 05007KT 15/M01 A3024 RMK A01 T01461010  RH  034%=      5-min Rain = 0
KPG1 132038Z 05008KT 15/M01 A3024 RMK A01 T01471011  RH  034%=      5-min Rain = 0
KPG1 132039Z 04007KT 15/M01 A3024 RMK A01 T01461012  RH  034%=      5-min Rain = 0
KPG1 132040Z 03008KT 15/M01 A3024 RMK A01 T01461012  RH  034%=      5-min Rain = 0
KPG1 132041Z 03008KT 15/M01 A3024 RMK A01 T01471010  RH  034%=      5-min Rain = 0
KPG1 132042Z 03008KT 15/M01 A3024 RMK A01 T01501010  RH  033%=      5-min Rain = 0
KPG1 132043Z 04007KT 15/M01 A3024 RMK A01 T01501011  RH  033%=      5-min Rain = 0
KPG1 132044Z 03007KT 15/M01 A3024 RMK A01 T01491011  RH  033%=      5-min Rain = 0
KPG1 132045Z 04008KT 15/M01 A3024 RMK A01 T01491011  RH  033%=      5-min Rain = 0
KPG1 132046Z 04008KT 15/M01 A3024 RMK A01 T01471012  RH  034%=      5-min Rain = 0
KPG1 132047Z 02008KT 15/M01 A3024 RMK A01 T01481010  RH  034%=      5-min Rain = 0
KPG1 132048Z 03009KT 15/M01 A3024 RMK A01 T01501010  RH  033%=      5-min Rain = 0
KPG1 132049Z 02010KT 15/M01 A3024 RMK A01 T01511010  RH  033%=      5-min Rain = 0
KPG1 132050Z 02009KT 15/M01 A3024 RMK A01 T01531011  RH  033%=      5-min Rain = 0
KPG1 132051Z 03010KT 15/M01 A3024 RMK A01 T01511012  RH  033%=      5-min Rain = 0
KPG1 132052Z 04009KT 15/M01 A3024 RMK A01 T01501012  RH  033%=      5-min Rain = 0
KPG1 132053Z 05009KT 15/M01 A3024 RMK A01 T01501011  RH  033%=      5-min Rain = 0
KPG1 132054Z 04008KT 15/M01 A3024 RMK A01 T01511010  RH  033%=      5-min Rain = 0
KPG1 132055Z 05007KT 15/M01 A3024 RMK A01 T01521010  RH  033%=      5-min Rain = 0
KPG1 132056Z 04008KT 15/M01 A3024 RMK A01 T01541009  RH  033%=      5-min Rain = 0
KPG1 132057Z 06010KT 15/M01 A3023 RMK A01 T01541009  RH  033%=      5-min Rain = 0
KPG1 132058Z 06009KT 16/M01 A3023 RMK A01 T01551010  RH  032%=      5-min Rain = 0
KPG1 132059Z 07009KT 15/M01 A3023 RMK A01 T01541010  RH  032%=      5-min Rain = 0
KPG1 132100Z 07010KT 15/M01 A3023 RMK A01 T01521011  RH  033%=      5-min Rain = 0
KPG1 132101Z 06008KT 15/M01 A3023 RMK A01 T01521010  RH  033%=      5-min Rain = 0
KPG1 132102Z 07009KT 16/M01 A3023 RMK A01 T01551009  RH  033%=      5-min Rain = 0
KPG1 132103Z 04009KT 16/M01 A3023 RMK A01 T01561010  RH  032%=      5-min Rain = 0
KPG1 132104Z 05010KT 16/M01 A3023 RMK A01 T01551010  RH  032%=      5-min Rain = 0
KPG1 132105Z 05010KT 16/M01 A3023 RMK A01 T01551010  RH  032%=      5-min Rain = 0
KPG1 132106Z 05010KT 16/M01 A3023 RMK A01 T01551011  RH  032%=      5-min Rain = 0
KPG1 132107Z 06009KT 15/M01 A3023 RMK A01 T01541011  RH  032%=      5-min Rain = 0
KPG1 132108Z 06009KT 15/M01 A3023 RMK A01 T01541010  RH  033%=      5-min Rain = 0
KPG1 132109Z 06008KT 16/M01 A3023 RMK A01 T01551009  RH  033%=      5-min Rain = 0
KPG1 132110Z 05010KT 16/M01 A3023 RMK A01 T01581008  RH  032%=      5-min Rain = 0
KPG1 132111Z 06009KT 16/M01 A3023 RMK A01 T01601008  RH  032%=      5-min Rain = 0
KPG1 132112Z 05011KT 16/M01 A3023 RMK A01 T01611009  RH  031%=      5-min Rain = 0
KPG1 132113Z 05011KT 16/M01 A3023 RMK A01 T01591010  RH  032%=      5-min Rain = 0
KPG1 132114Z 06011KT 16/M01 A3023 RMK A01 T01581010  RH  032%=      5-min Rain = 0
KPG1 132115Z 06011KT 16/M01 A3023 RMK A01 T01571010  RH  032%=      5-min Rain = 0
KPG1 132116Z 06011KT 16/M01 A3023 RMK A01 T01571010  RH  032%=      5-min Rain = 0
KPG1 132117Z 06010KT 16/M01 A3023 RMK A01 T01571010  RH  032%=      5-min Rain = 0
KPG1 132118Z 06010KT 16/M01 A3023 RMK A01 T01571010  RH  032%=      5-min Rain = 0
KPG1 132119Z 06010KT 16/M01 A3023 RMK A01 T01571009  RH  032%=      5-min Rain = 0
KPG1 132120Z 06009KT 16/M01 A3023 RMK A01 T01561010  RH  032%=      5-min Rain = 0
KPG1 132121Z 06010KT 16/M01 A3023 RMK A01 T01551010  RH  032%=      5-min Rain = 0
KPG1 132122Z 05008KT 16/M01 A3023 RMK A01 T01551009  RH  032%=      5-min Rain = 0
KPG1 132123Z 06010KT 16/M01 A3023 RMK A01 T01581007  RH  032%=      5-min Rain = 0
KPG1 132124Z 06011KT 16/M01 A3022 RMK A01 T01581008  RH  032%=      5-min Rain = 0
KPG1 132125Z 06010KT 16/M01 A3022 RMK A01 T01571009  RH  032%=      5-min Rain = 0
KPG1 132126Z 05010KT 16/M01 A3022 RMK A01 T01571008  RH  032%=      5-min Rain = 0
KPG1 132127Z 06009KT 16/M01 A3022 RMK A01 T01601007  RH  032%=      5-min Rain = 0
KPG1 132128Z 06012KT 16/M01 A3022 RMK A01 T01611007  RH  032%=      5-min Rain = 0
KPG1 132129Z 05010KT 16/M01 A3022 RMK A01 T01611007  RH  032%=      5-min Rain = 0
KPG1 132130Z 06009KT 16/M01 A3022 RMK A01 T01621007  RH  032%=      5-min Rain = 0
KPG1 132131Z 05009KT 16/M01 A3022 RMK A01 T01621007  RH  031%=      5-min Rain = 0
KPG1 132132Z 05008KT 16/M01 A3022 RMK A01 T01621007  RH  031%=      5-min Rain = 0
KPG1 132133Z 07010KT 16/M01 A3022 RMK A01 T01621008  RH  031%=      5-min Rain = 0
KPG1 132134Z 07010KT 16/M01 A3022 RMK A01 T01601009  RH  031%=      5-min Rain = 0
KPG1 132135Z 06011KT 16/M01 A3022 RMK A01 T01601008  RH  032%=      5-min Rain = 0
KPG1 132136Z 06009KT 16/M01 A3023 RMK A01 T01591008  RH  032%=      5-min Rain = 0
KPG1 132137Z 06010KT 16/M01 A3023 RMK A01 T01601008  RH  032%=      5-min Rain = 0
KPG1 132138Z 07010KT 16/M01 A3022 RMK A01 T01611008  RH  032%=      5-min Rain = 0
KPG1 132139Z 07011KT 16/M01 A3022 RMK A01 T01601008  RH  032%=      5-min Rain = 0
KPG1 132140Z 06010KT 16/M01 A3022 RMK A01 T01591008  RH  032%=      5-min Rain = 0
KPG1 132141Z 07010KT 16/M01 A3022 RMK A01 T01601007  RH  032%=      5-min Rain = 0
KPG1 132142Z 07011KT 16/M01 A3022 RMK A01 T01601007  RH  032%=      5-min Rain = 0
KPG1 132143Z 07011KT 16/M01 A3022 RMK A01 T01611007  RH  032%=      5-min Rain = 0
KPG1 132144Z 06011KT 16/M01 A3022 RMK A01 T01611007  RH  032%=      5-min Rain = 0
KPG1 132145Z 06009KT 16/M01 A3022 RMK A01 T01621007  RH  032%=      5-min Rain = 0
KPG1 132146Z 04008KT 16/M01 A3022 RMK A01 T01631006  RH  031%=      5-min Rain = 0
KPG1 132147Z 06010KT 17/M01 A3022 RMK A01 T01661006  RH  031%=      5-min Rain = 0
KPG1 132148Z 06010KT 17/M01 A3022 RMK A01 T01661007  RH  031%=      5-min Rain = 0
KPG1 132149Z 07011KT 17/M01 A3022 RMK A01 T01651006  RH  031%=      5-min Rain = 0
KPG1 132150Z 07010KT 17/M01 A3022 RMK A01 T01651006  RH  031%=      5-min Rain = 0
KPG1 132151Z 07012KT 17/M01 A3022 RMK A01 T01651006  RH  031%=      5-min Rain = 0
KPG1 132152Z 06010KT 16/M01 A3022 RMK A01 T01641006  RH  031%=      5-min Rain = 0
KPG1 132153Z 06011KT 16/M01 A3022 RMK A01 T01641007  RH  031%=      5-min Rain = 0
KPG1 132154Z 05010KT 16/M01 A3022 RMK A01 T01641007  RH  031%=      5-min Rain = 0
KPG1 132155Z 07011KT 17/M01 A3022 RMK A01 T01651006  RH  031%=      5-min Rain = 0
KPG1 132156Z 07011KT 17/M01 A3022 RMK A01 T01661006  RH  031%=      5-min Rain = 0
KPG1 132157Z 07010KT 17/M01 A3022 RMK A01 T01651006  RH  031%=      5-min Rain = 0
KPG1 132158Z 06010KT 17/M01 A3022 RMK A01 T01651006  RH  031%=      5-min Rain = 0
KPG1 132159Z 06009KT 17/M01 A3022 RMK A01 T01651006  RH  031%=      5-min Rain = 0
KPG1 132200Z 05008KT 17/M01 A3022 RMK A01 T01671005  RH  031%=      5-min Rain = 0
KPG1 132201Z 04008KT 17/M00 A3022 RMK A01 T01701004  RH  031%=      5-min Rain = 0
KPG1 132202Z 02010KT 17/M00 A3022 RMK A01 T01721004  RH  030%=      5-min Rain = 0
KPG1 132203Z 03011KT 17/M01 A3022 RMK A01 T01721005  RH  030%=      5-min Rain = 0
KPG1 132204Z 04009KT 17/M01 A3022 RMK A01 T01711005  RH  030%=      5-min Rain = 0
KPG1 132205Z 04010KT 17/M01 A3022 RMK A01 T01721005  RH  030%=      5-min Rain = 0
KPG1 132206Z 04010KT 17/M01 A3022 RMK A01 T01721006  RH  030%=      5-min Rain = 0
KPG1 132207Z 03010KT 17/M01 A3022 RMK A01 T01721006  RH  030%=      5-min Rain = 0
KPG1 132208Z 02009KT 17/M01 A3022 RMK A01 T01711006  RH  030%=      5-min Rain = 0
KPG1 132209Z 03011KT 17/M01 A3022 RMK A01 T01711005  RH  030%=      5-min Rain = 0
KPG1 132210Z 04010KT 17/M01 A3022 RMK A01 T01721005  RH  030%=      5-min Rain = 0
KPG1 132211Z 03011KT 17/M01 A3022 RMK A01 T01711006  RH  030%=      5-min Rain = 0
KPG1 132212Z 02009KT 17/M01 A3022 RMK A01 T01701005  RH  030%=      5-min Rain = 0
KPG1 132213Z 02009KT 17/M01 A3022 RMK A01 T01701005  RH  030%=      5-min Rain = 0
KPG1 132214Z 03010KT 17/M00 A3022 RMK A01 T01711004  RH  030%=      5-min Rain = 0
KPG1 132215Z 04011KT 17/M01 A3022 RMK A01 T01721005  RH  030%=      5-min Rain = 0
KPG1 132216Z 03009KT 17/M01 A3022 RMK A01 T01711005  RH  030%=      5-min Rain = 0
KPG1 132217Z 03010KT 17/M00 A3022 RMK A01 T01721004  RH  030%=      5-min Rain = 0
KPG1 132218Z 03011KT 17/M01 A3022 RMK A01 T01731005  RH  030%=      5-min Rain = 0
KPG1 132219Z 02010KT 17/M00 A3022 RMK A01 T01741004  RH  030%=      5-min Rain = 0
KPG1 132220Z 02011KT 17/M00 A3022 RMK A01 T01731004  RH  030%=      5-min Rain = 0
KPG1 132221Z 02011KT 17/M00 A3022 RMK A01 T01731004  RH  030%=      5-min Rain = 0
KPG1 132222Z 03008KT 18/M00 A3022 RMK A01 T01751003  RH  030%=      5-min Rain = 0
KPG1 132223Z 02009KT 18/M00 A3022 RMK A01 T01761003  RH  030%=      5-min Rain = 0
KPG1 132224Z 02010KT 18/M00 A3022 RMK A01 T01781002  RH  029%=      5-min Rain = 0
KPG1 132225Z 02011KT 18/M00 A3022 RMK A01 T01781003  RH  029%=      5-min Rain = 0
KPG1 132226Z 01009KT 18/M00 A3022 RMK A01 T01781004  RH  029%=      5-min Rain = 0
KPG1 132227Z 02009KT 18/M00 A3022 RMK A01 T01781004  RH  029%=      5-min Rain = 0
KPG1 132228Z 02010KT 18/M00 A3022 RMK A01 T01791004  RH  029%=      5-min Rain = 0
KPG1 132229Z 04009KT 18/M00 A3022 RMK A01 T01801003  RH  029%=      5-min Rain = 0
KPG1 132230Z 03009KT 18/M00 A3022 RMK A01 T01821002  RH  029%=      5-min Rain = 0
KPG1 132231Z 04009KT 19/M00 A3022 RMK A01 T01851002  RH  028%=      5-min Rain = 0
KPG1 132232Z 04009KT 18/M00 A3022 RMK A01 T01841004  RH  028%=      5-min Rain = 0
KPG1 132233Z 05011KT 18/M00 A3021 RMK A01 T01831004  RH  028%=      5-min Rain = 0
KPG1 132234Z 05010KT 18/M00 A3021 RMK A01 T01821004  RH  028%=      5-min Rain = 0
KPG1 132235Z 05011KT 18/M00 A3021 RMK A01 T01821003  RH  028%=      5-min Rain = 0
KPG1 132236Z 04010KT 18/M01 A3021 RMK A01 T01801005  RH  029%=      5-min Rain = 0
KPG1 132237Z 05010KT 18/M00 A3021 RMK A01 T01791004  RH  029%=      5-min Rain = 0
KPG1 132238Z 04010KT 18/M00 A3021 RMK A01 T01791003  RH  029%=      5-min Rain = 0
KPG1 132239Z 05011KT 18/M00 A3021 RMK A01 T01791004  RH  029%=      5-min Rain = 0
KPG1 132240Z 04010KT 18/M00 A3021 RMK A01 T01791004  RH  029%=      5-min Rain = 0
KPG1 132241Z 04010KT 18/M01 A3021 RMK A01 T01771005  RH  029%=      5-min Rain = 0
KPG1 132242Z 04010KT 18/M00 A3021 RMK A01 T01761004  RH  029%=      5-min Rain = 0
KPG1 132243Z 04008KT 18/M00 A3021 RMK A01 T01761004  RH  030%=      5-min Rain = 0
KPG1 132244Z 04010KT 18/M00 A3021 RMK A01 T01791002  RH  029%=      5-min Rain = 0
KPG1 132245Z 03008KT 18/M00 A3021 RMK A01 T01811003  RH  029%=      5-min Rain = 0
KPG1 132246Z 04010KT 18/M00 A3021 RMK A01 T01811003  RH  029%=      5-min Rain = 0
KPG1 132247Z 04011KT 18/M00 A3021 RMK A01 T01811002  RH  029%=      5-min Rain = 0
KPG1 132248Z 04011KT 18/M00 A3021 RMK A01 T01821003  RH  029%=      5-min Rain = 0
KPG1 132249Z 04009KT 18/M00 A3021 RMK A01 T01811003  RH  029%=      5-min Rain = 0
KPG1 132250Z 04010KT 18/M00 A3021 RMK A01 T01811002  RH  029%=      5-min Rain = 0
KPG1 132251Z 03010KT 18/M00 A3021 RMK A01 T01811003  RH  029%=      5-min Rain = 0
KPG1 132252Z 03010KT 18/M00 A3021 RMK A01 T01801004  RH  029%=      5-min Rain = 0
KPG1 132253Z 03010KT 18/M00 A3021 RMK A01 T01811003  RH  029%=      5-min Rain = 0
KPG1 132254Z 03011KT 18/M00 A3021 RMK A01 T01811003  RH  029%=      5-min Rain = 0
KPG1 132255Z 03010KT 18/M00 A3021 RMK A01 T01811003  RH  029%=      5-min Rain = 0
KPG1 132256Z 04010KT 18/M00 A3021 RMK A01 T01811003  RH  029%=      5-min Rain = 0
KPG1 132257Z 04009KT 18/M00 A3021 RMK A01 T01811003  RH  029%=      5-min Rain = 0
KPG1 132258Z 04010KT 18/M00 A3021 RMK A01 T01821002  RH  029%=      5-min Rain = 0
KPG1 132259Z 05010KT 18/M00 A3021 RMK A01 T01821003  RH  029%=      5-min Rain = 0
KPG1 132300Z 05010KT 18/M00 A3021 RMK A01 T01811004  RH  029%=      5-min Rain = 0
KPG1 132301Z 05010KT 18/M00 A3021 RMK A01 T01811003  RH  029%=      5-min Rain = 0
KPG1 132302Z 05011KT 18/M00 A3021 RMK A01 T01801004  RH  029%=      5-min Rain = 0
KPG1 132303Z 04009KT 18/M00 A3021 RMK A01 T01801003  RH  029%=      5-min Rain = 0
KPG1 132304Z 04011KT 18/M00 A3021 RMK A01 T01811003  RH  029%=      5-min Rain = 0
KPG1 132305Z 05010KT 18/M00 A3021 RMK A01 T01821004  RH  029%=      5-min Rain = 0
KPG1 132306Z 04011KT 18/M00 A3021 RMK A01 T01811004  RH  029%=      5-min Rain = 0
KPG1 132307Z 05010KT 18/M00 A3021 RMK A01 T01811004  RH  029%=      5-min Rain = 0
KPG1 132308Z 05011KT 18/M00 A3021 RMK A01 T01811004  RH  029%=      5-min Rain = 0
KPG1 132309Z 04012KT 18/M00 A3021 RMK A01 T01811004  RH  029%=      5-min Rain = 0
KPG1 132310Z 04012KT 18/M00 A3021 RMK A01 T01821004  RH  029%=      5-min Rain = 0
KPG1 132311Z 03012KT 18/M00 A3021 RMK A01 T01831003  RH  028%=      5-min Rain = 0
KPG1 132312Z 03011KT 18/M00 A3021 RMK A01 T01831004  RH  028%=      5-min Rain = 0
KPG1 132313Z 03009KT 18/M00 A3021 RMK A01 T01821004  RH  028%=      5-min Rain = 0
KPG1 132314Z 04011KT 18/M00 A3021 RMK A01 T01841003  RH  028%=      5-min Rain = 0
KPG1 132315Z 03011KT 18/M00 A3021 RMK A01 T01841003  RH  028%=      5-min Rain = 0
KPG1 132316Z 03012KT 18/M00 A3021 RMK A01 T01841003  RH  028%=      5-min Rain = 0
KPG1 132317Z 03011KT 18/M00 A3021 RMK A01 T01831003  RH  028%=      5-min Rain = 0
KPG1 132318Z 04012KT 18/M00 A3022 RMK A01 T01821003  RH  029%=      5-min Rain = 0
KPG1 132319Z 04012KT 18/M00 A3022 RMK A01 T01821003  RH  029%=      5-min Rain = 0
KPG1 132320Z 04011KT 18/M00 A3022 RMK A01 T01821003  RH  029%=      5-min Rain = 0
KPG1 132321Z 02011KT 18/M00 A3022 RMK A01 T01821003  RH  029%=      5-min Rain = 0
KPG1 132322Z 03011KT 18/M00 A3022 RMK A01 T01831002  RH  029%=      5-min Rain = 0
KPG1 132323Z 04011KT 18/M00 A3022 RMK A01 T01831002  RH  029%=      5-min Rain = 0
KPG1 132324Z 04011KT 18/M00 A3022 RMK A01 T01821002  RH  029%=      5-min Rain = 0
KPG1 132325Z 04010KT 18/M00 A3022 RMK A01 T01801003  RH  029%=      5-min Rain = 0
KPG1 132326Z 04010KT 18/M00 A3022 RMK A01 T01781004  RH  029%=      5-min Rain = 0
KPG1 132327Z 04008KT 18/M00 A3022 RMK A01 T01781003  RH  029%=      5-min Rain = 0
KPG1 132328Z 05008KT 18/M00 A3022 RMK A01 T01781003  RH  029%=      5-min Rain = 0
KPG1 132329Z 05007KT 18/M00 A3022 RMK A01 T01811002  RH  029%=      5-min Rain = 0
KPG1 132330Z 05008KT 18/M00 A3022 RMK A01 T01841001  RH  029%=      5-min Rain = 0
KPG1 132331Z 05011KT 19/M00 A3022 RMK A01 T01851002  RH  028%=      5-min Rain = 0
KPG1 132332Z 05011KT 18/M00 A3022 RMK A01 T01841003  RH  028%=      5-min Rain = 0
KPG1 132333Z 03011KT 18/M00 A3022 RMK A01 T01841003  RH  028%=      5-min Rain = 0
KPG1 132334Z 05011KT 18/M00 A3022 RMK A01 T01821004  RH  028%=      5-min Rain = 0
KPG1 132335Z 04010KT 18/M00 A3022 RMK A01 T01821003  RH  029%=      5-min Rain = 0
KPG1 132336Z 04010KT 18/M00 A3022 RMK A01 T01821003  RH  028%=      5-min Rain = 0
KPG1 132337Z 06011KT 18/M00 A3022 RMK A01 T01831003  RH  028%=      5-min Rain = 0
KPG1 132338Z 06012KT 18/M00 A3022 RMK A01 T01831003  RH  028%=      5-min Rain = 0
KPG1 132339Z 07013KT 18/M00 A3022 RMK A01 T01831004  RH  028%=      5-min Rain = 0
KPG1 132340Z 06011KT 18/M00 A3022 RMK A01 T01821004  RH  028%=      5-min Rain = 0
KPG1 132341Z 05012KT 18/M00 A3022 RMK A01 T01821004  RH  028%=      5-min Rain = 0
KPG1 132342Z 06012KT 18/M00 A3022 RMK A01 T01821004  RH  028%=      5-min Rain = 0
KPG1 132343Z 06011KT 18/M00 A3022 RMK A01 T01821004  RH  028%=      5-min Rain = 0
KPG1 132344Z 05013KT 18/M00 A3022 RMK A01 T01821004  RH  028%=      5-min Rain = 0
KPG1 132345Z 05011KT 18/M00 A3022 RMK A01 T01811004  RH  029%=      5-min Rain = 0
KPG1 132346Z 05010KT 18/M00 A3022 RMK A01 T01811004  RH  029%=      5-min Rain = 0
KPG1 132347Z 06009KT 18/M00 A3022 RMK A01 T01811004  RH  029%=      5-min Rain = 0
KPG1 132348Z 06012KT 18/M00 A3022 RMK A01 T01821004  RH  028%=      5-min Rain = 0
KPG1 132349Z 06010KT 18/M00 A3022 RMK A01 T01821004  RH  028%=      5-min Rain = 0
KPG1 132350Z 05011KT 18/M00 A3022 RMK A01 T01821004  RH  028%=      5-min Rain = 0
KPG1 132351Z 04009KT 18/M01 A3022 RMK A01 T01821005  RH  028%=      5-min Rain = 0
KPG1 132352Z 03011KT 18/M01 A3022 RMK A01 T01811005  RH  028%=      5-min Rain = 0
KPG1 132353Z 04010KT 18/M01 A3022 RMK A01 T01811005  RH  028%=      5-min Rain = 0
KPG1 132354Z 04010KT 18/M01 A3022 RMK A01 T01811005  RH  028%=      5-min Rain = 0
KPG1 132355Z 04011KT 18/M00 A3022 RMK A01 T01811004  RH  029%=      5-min Rain = 0
KPG1 132356Z 04012KT 18/M00 A3022 RMK A01 T01811004  RH  029%=      5-min Rain = 0
KPG1 132357Z 04010KT 18/M00 A3022 RMK A01 T01811004  RH  029%=      5-min Rain = 0
KPG1 132358Z 04009KT 18/M00 A3023 RMK A01 T01811004  RH  029%=      5-min Rain = 0
KPG1 132359Z 04009KT 18/M00 A3023 RMK A01 T01811004  RH  029%=      5-min Rain = 0
KPG1 140000Z 05010KT 18/M00 A3023 RMK A01 T01811004  RH  029%=      5-min Rain = 0
KPG1 140001Z 06011KT 18/M00 A3023 RMK A01 T01811004  RH  029%=      5-min Rain = 0
KPG1 140002Z 06011KT 18/M01 A3023 RMK A01 T01811005  RH  028%=      5-min Rain = 0
KPG1 140003Z 04008KT 18/M00 A3023 RMK A01 T01811004  RH  029%=      5-min Rain = 0
KPG1 140004Z 04009KT 18/M00 A3023 RMK A01 T01811004  RH  029%=      5-min Rain = 0
KPG1 140005Z 05009KT 18/M00 A3023 RMK A01 T01811004  RH  029%=      5-min Rain = 0
KPG1 140011Z 04010KT 18/M00 A3023 RMK A01 T01801003  RH  029%=      5-min Rain = 0
KPG1 140012Z 04010KT 18/M00 A3023 RMK A01 T01801003  RH  029%=      5-min Rain = 0
KPG1 140013Z 04012KT 18/M00 A3023 RMK A01 T01791003  RH  029%=      5-min Rain = 0
KPG1 140014Z 05010KT 18/M00 A3023 RMK A01 T01781003  RH  029%=      5-min Rain = 0
KPG1 140015Z 04011KT 18/M00 A3023 RMK A01 T01771003  RH  029%=      5-min Rain = 0
KPG1 140016Z 04010KT 18/M00 A3023 RMK A01 T01771003  RH  030%=      5-min Rain = 0
KPG1 140017Z 03011KT 18/M00 A3023 RMK A01 T01761003  RH  030%=      5-min Rain = 0
KPG1 140018Z 03012KT 18/M00 A3023 RMK A01 T01761003  RH  030%=      5-min Rain = 0
KPG1 140019Z 04013KT 18/M00 A3023 RMK A01 T01751004  RH  030%=      5-min Rain = 0
KPG1 140020Z 03013KT 17/M00 A3023 RMK A01 T01741003  RH  030%=      5-min Rain = 0
KPG1 140021Z 03012KT 17/M00 A3023 RMK A01 T01741003  RH  030%=      5-min Rain = 0
KPG1 140022Z 04012KT 17/M00 A3023 RMK A01 T01731003  RH  030%=      5-min Rain = 0
KPG1 140023Z 04011KT 17/M00 A3023 RMK A01 T01731003  RH  030%=      5-min Rain = 0
KPG1 140024Z 04011KT 17/M00 A3023 RMK A01 T01731003  RH  030%=      5-min Rain = 0
KPG1 140025Z 04011KT 17/M00 A3023 RMK A01 T01731003  RH  030%=      5-min Rain = 0
KPG1 140026Z 04011KT 17/M00 A3023 RMK A01 T01721003  RH  030%=      5-min Rain = 0
KPG1 140027Z 04010KT 17/M00 A3023 RMK A01 T01721003  RH  030%=      5-min Rain = 0
KPG1 140028Z 03010KT 17/M00 A3023 RMK A01 T01721003  RH  030%=      5-min Rain = 0
KPG1 140029Z 03011KT 17/M00 A3023 RMK A01 T01711004  RH  031%=      5-min Rain = 0
KPG1 140030Z 03011KT 17/M00 A3023 RMK A01 T01711003  RH  031%=      5-min Rain = 0
KPG1 140031Z 03012KT 17/M00 A3023 RMK A01 T01701004  RH  031%=      5-min Rain = 0
KPG1 140032Z 03012KT 17/M00 A3023 RMK A01 T01701004  RH  031%=      5-min Rain = 0
KPG1 140033Z 03012KT 17/M00 A3023 RMK A01 T01701003  RH  031%=      5-min Rain = 0
KPG1 140034Z 04012KT 17/M00 A3023 RMK A01 T01701003  RH  031%=      5-min Rain = 0
KPG1 140035Z 03012KT 17/M00 A3023 RMK A01 T01691004  RH  031%=      5-min Rain = 0
KPG1 140036Z 04013KT 17/M00 A3023 RMK A01 T01701003  RH  031%=      5-min Rain = 0
KPG1 140037Z 04011KT 17/M00 A3023 RMK A01 T01691004  RH  031%=      5-min Rain = 0
KPG1 140038Z 04011KT 17/M00 A3023 RMK A01 T01691004  RH  031%=      5-min Rain = 0
KPG1 140039Z 03012KT 17/M00 A3023 RMK A01 T01681004  RH  031%=      5-min Rain = 0
KPG1 140040Z 04011KT 17/M00 A3023 RMK A01 T01671004  RH  031%=      5-min Rain = 0
KPG1 140041Z 03013KT 17/M00 A3023 RMK A01 T01661004  RH  031%=      5-min Rain = 0
KPG1 140042Z 03014KT 17/M00 A3023 RMK A01 T01661004  RH  031%=      5-min Rain = 0
KPG1 140043Z 03014KT 17/M00 A3023 RMK A01 T01661004  RH  031%=      5-min Rain = 0
KPG1 140044Z 04013KT 17/M00 A3023 RMK A01 T01651004  RH  032%=      5-min Rain = 0
KPG1 140045Z 04012KT 17/M00 A3023 RMK A01 T01651004  RH  032%=      5-min Rain = 0
KPG1 140046Z 03013KT 16/M00 A3023 RMK A01 T01641004  RH  032%=      5-min Rain = 0
KPG1 140047Z 03012KT 16/M00 A3023 RMK A01 T01641004  RH  032%=      5-min Rain = 0
KPG1 140048Z 03013KT 16/M00 A3023 RMK A01 T01631004  RH  032%=      5-min Rain = 0
KPG1 140049Z 04013KT 16/M01 A3023 RMK A01 T01631005  RH  032%=      5-min Rain = 0
KPG1 140050Z 03015KT 16/M01 A3023 RMK A01 T01631005  RH  032%=      5-min Rain = 0
KPG1 140051Z 04013KT 16/M01 A3023 RMK A01 T01621005  RH  032%=      5-min Rain = 0
KPG1 140052Z 04013KT 16/M01 A3023 RMK A01 T01611005  RH  032%=      5-min Rain = 0
KPG1 140053Z 04012KT 16/M01 A3023 RMK A01 T01611005  RH  032%=      5-min Rain = 0
KPG1 140054Z 05011KT 16/M01 A3023 RMK A01 T01611005  RH  032%=      5-min Rain = 0
KPG1 140055Z 05011KT 16/M01 A3023 RMK A01 T01601005  RH  032%=      5-min Rain = 0
KPG1 140056Z 04013KT 16/M01 A3023 RMK A01 T01591006  RH  032%=      5-min Rain = 0
KPG1 140057Z 03014KT 16/M01 A3023 RMK A01 T01591005  RH  033%=      5-min Rain = 0
KPG1 140058Z 03016KT 16/M01 A3023 RMK A01 T01591005  RH  033%=      5-min Rain = 0
KPG1 140059Z 03015KT 16/M01 A3023 RMK A01 T01581006  RH  033%=      5-min Rain = 0
KPG1 140100Z 04015KT 16/M01 A3023 RMK A01 T01581005  RH  033%=      5-min Rain = 0
KPG1 140101Z 04014KT 16/M01 A3023 RMK A01 T01571006  RH  033%=      5-min Rain = 0
KPG1 140102Z 03014KT 16/M01 A3023 RMK A01 T01571006  RH  033%=      5-min Rain = 0
KPG1 140103Z 03014KT 16/M01 A3023 RMK A01 T01561006  RH  033%=      5-min Rain = 0
KPG1 140104Z 03015KT 16/M01 A3023 RMK A01 T01561006  RH  033%=      5-min Rain = 0
KPG1 140105Z 04016KT 16/M01 A3024 RMK A01 T01561006  RH  033%=      5-min Rain = 0
KPG1 140106Z 03016KT 16/M01 A3024 RMK A01 T01551006  RH  033%=      5-min Rain = 0
KPG1 140107Z 03015KT 16/M01 A3024 RMK A01 T01551006  RH  033%=      5-min Rain = 0
KPG1 140108Z 03016KT 15/M01 A3024 RMK A01 T01541006  RH  033%=      5-min Rain = 0
KPG1 140109Z 03016KT 15/M01 A3024 RMK A01 T01541006  RH  033%=      5-min Rain = 0
KPG1 140110Z 04016KT 15/M01 A3024 RMK A01 T01531007  RH  034%=      5-min Rain = 0
KPG1 140111Z 03016KT 15/M01 A3024 RMK A01 T01521007  RH  034%=      5-min Rain = 0
KPG1 140112Z 03017KT 15/M01 A3024 RMK A01 T01511007  RH  034%=      5-min Rain = 0
KPG1 140113Z 03018KT 15/M01 A3024 RMK A01 T01511007  RH  034%=      5-min Rain = 0
KPG1 140114Z 03017KT 15/M01 A3024 RMK A01 T01501007  RH  034%=      5-min Rain = 0
KPG1 140115Z 03018KT 15/M01 A3024 RMK A01 T01491007  RH  034%=      5-min Rain = 0
KPG1 140116Z 03018KT 15/M01 A3024 RMK A01 T01491007  RH  034%=      5-min Rain = 0
KPG1 140117Z 03017KT 15/M01 A3024 RMK A01 T01481007  RH  035%=      5-min Rain = 0
KPG1 140118Z 03016KT 15/M01 A3024 RMK A01 T01471007  RH  035%=      5-min Rain = 0
KPG1 140119Z 03017KT 15/M01 A3024 RMK A01 T01471006  RH  035%=      5-min Rain = 0
KPG1 140120Z 03017KT 15/M01 A3024 RMK A01 T01461006  RH  035%=      5-min Rain = 0
KPG1 140121Z 04017KT 15/M01 A3024 RMK A01 T01461006  RH  035%=      5-min Rain = 0
KPG1 140122Z 04017KT 15/M01 A3024 RMK A01 T01461006  RH  035%=      5-min Rain = 0
KPG1 140123Z 04016KT 15/M01 A3024 RMK A01 T01451006  RH  035%=      5-min Rain = 0
KPG1 140124Z 03015KT 15/M01 A3024 RMK A01 T01451006  RH  035%=      5-min Rain = 0
KPG1 140125Z 03015KT 14/M01 A3024 RMK A01 T01441006  RH  036%=      5-min Rain = 0
KPG1 140126Z 03018KT 14/M01 A3024 RMK A01 T01431007  RH  036%=      5-min Rain = 0
KPG1 140127Z 03018KT 14/M01 A3024 RMK A01 T01431006  RH  036%=      5-min Rain = 0
KPG1 140128Z 03016KT 14/M01 A3024 RMK A01 T01431006  RH  036%=      5-min Rain = 0
KPG1 140129Z 04017KT 14/M01 A3024 RMK A01 T01421006  RH  036%=      5-min Rain = 0
KPG1 140130Z 04017KT 14/M01 A3024 RMK A01 T01421006  RH  036%=      5-min Rain = 0
KPG1 140131Z 03018KT 14/M01 A3025 RMK A01 T01411006  RH  036%=      5-min Rain = 0
KPG1 140132Z 03017KT 14/M01 A3025 RMK A01 T01411006  RH  036%=      5-min Rain = 0
KPG1 140133Z 04018KT 14/M01 A3025 RMK A01 T01411005  RH  037%=      5-min Rain = 0
KPG1 140134Z 04018KT 14/M01 A3025 RMK A01 T01411005  RH  037%=      5-min Rain = 0
KPG1 140135Z 03017KT 14/M01 A3025 RMK A01 T01411005  RH  037%=      5-min Rain = 0
KPG1 140136Z 04016KT 14/M01 A3025 RMK A01 T01411005  RH  037%=      5-min Rain = 0
KPG1 140137Z 04016KT 14/M01 A3025 RMK A01 T01411005  RH  037%=      5-min Rain = 0
KPG1 140138Z 04015KT 14/M01 A3025 RMK A01 T01411005  RH  037%=      5-min Rain = 0
KPG1 140139Z 04014KT 14/M01 A3025 RMK A01 T01411005  RH  037%=      5-min Rain = 0
KPG1 140140Z 03013KT 14/M01 A3025 RMK A01 T01401005  RH  037%=      5-min Rain = 0
KPG1 140141Z 02014KT 14/M01 A3025 RMK A01 T01391006  RH  037%=      5-min Rain = 0
KPG1 140142Z 02014KT 14/M01 A3025 RMK A01 T01381007  RH  037%=      5-min Rain = 0
KPG1 140143Z 02016KT 14/M01 A3025 RMK A01 T01371007  RH  037%=      5-min Rain = 0
KPG1 140144Z 01013KT 14/M01 A3025 RMK A01 T01371006  RH  037%=      5-min Rain = 0
KPG1 140145Z 01016KT 14/M01 A3025 RMK A01 T01371006  RH  037%=      5-min Rain = 0
KPG1 140146Z 02016KT 14/M01 A3025 RMK A01 T01381006  RH  037%=      5-min Rain = 0
KPG1 140147Z 01014KT 14/M01 A3025 RMK A01 T01381006  RH  037%=      5-min Rain = 0
KPG1 140148Z 02016KT 14/M01 A3025 RMK A01 T01381006  RH  037%=      5-min Rain = 0
KPG1 140149Z 02016KT 14/M01 A3025 RMK A01 T01381006  RH  037%=      5-min Rain = 0
KPG1 140150Z 02016KT 14/M01 A3025 RMK A01 T01381006  RH  037%=      5-min Rain = 0
KPG1 140151Z 02016KT 14/M01 A3025 RMK A01 T01381006  RH  037%=      5-min Rain = 0
KPG1 140152Z 01014KT 14/M01 A3025 RMK A01 T01381006  RH  037%=      5-min Rain = 0
KPG1 140153Z 01015KT 14/M01 A3026 RMK A01 T01381006  RH  037%=      5-min Rain = 0
KPG1 140154Z 01016KT 14/M01 A3025 RMK A01 T01371006  RH  037%=      5-min Rain = 0
KPG1 140155Z 01015KT 14/M01 A3025 RMK A01 T01381005  RH  037%=      5-min Rain = 0
KPG1 140156Z 02016KT 14/M01 A3025 RMK A01 T01371005  RH  037%=      5-min Rain = 0
KPG1 140157Z 02015KT 14/M01 A3026 RMK A01 T01371005  RH  038%=      5-min Rain = 0
KPG1 140158Z 01014KT 14/M01 A3026 RMK A01 T01371005  RH  038%=      5-min Rain = 0
KPG1 140159Z 02014KT 14/M01 A3026 RMK A01 T01371005  RH  038%=      5-min Rain = 0
KPG1 140200Z 01012KT 14/M01 A3026 RMK A01 T01371005  RH  038%=      5-min Rain = 0
KPG1 140201Z 01015KT 14/M01 A3026 RMK A01 T01361005  RH  038%=      5-min Rain = 0
KPG1 140202Z 02015KT 14/M01 A3026 RMK A01 T01361005  RH  038%=      5-min Rain = 0
KPG1 140203Z 02017KT 14/M01 A3026 RMK A01 T01361005  RH  038%=      5-min Rain = 0
KPG1 140204Z 02016KT 14/M01 A3026 RMK A01 T01361005  RH  038%=      5-min Rain = 0
KPG1 140205Z 02015KT 14/M01 A3026 RMK A01 T01351005  RH  038%=      5-min Rain = 0
KPG1 140206Z 02013KT 14/M01 A3026 RMK A01 T01351005  RH  038%=      5-min Rain = 0
KPG1 140207Z 01013KT 14/M01 A3026 RMK A01 T01351006  RH  038%=      5-min Rain = 0
KPG1 140208Z 01013KT 14/M01 A3026 RMK A01 T01351005  RH  038%=      5-min Rain = 0
KPG1 140209Z 01015KT 13/M01 A3026 RMK A01 T01341005  RH  038%=      5-min Rain = 0
KPG1 140210Z 01014KT 13/M01 A3026 RMK A01 T01341005  RH  038%=      5-min Rain = 0
KPG1 140211Z 01015KT 13/M01 A3026 RMK A01 T01341005  RH  038%=      5-min Rain = 0
KPG1 140212Z 01014KT 13/M01 A3026 RMK A01 T01341005  RH  038%=      5-min Rain = 0
KPG1 140213Z 01013KT 13/M01 A3026 RMK A01 T01341005  RH  038%=      5-min Rain = 0
KPG1 140214Z 02014KT 13/M01 A3026 RMK A01 T01341005  RH  038%=      5-min Rain = 0
KPG1 140215Z 01013KT 13/M01 A3026 RMK A01 T01341005  RH  038%=      5-min Rain = 0
KPG1 140216Z 01013KT 13/M01 A3026 RMK A01 T01331005  RH  038%=      5-min Rain = 0
KPG1 140217Z 01014KT 13/M01 A3026 RMK A01 T01331005  RH  039%=      5-min Rain = 0
KPG1 140218Z 02014KT 13/M01 A3026 RMK A01 T01321005  RH  039%=      5-min Rain = 0
KPG1 140219Z 02016KT 13/M01 A3026 RMK A01 T01321005  RH  039%=      5-min Rain = 0
KPG1 140220Z 02014KT 13/M01 A3026 RMK A01 T01321005  RH  039%=      5-min Rain = 0
KPG1 140221Z 02015KT 13/M01 A3026 RMK A01 T01321005  RH  039%=      5-min Rain = 0
KPG1 140222Z 01015KT 13/M01 A3027 RMK A01 T01321005  RH  039%=      5-min Rain = 0
KPG1 140223Z 02013KT 13/M01 A3027 RMK A01 T01321005  RH  039%=      5-min Rain = 0
KPG1 140224Z 01011KT 13/M01 A3027 RMK A01 T01321005  RH  039%=      5-min Rain = 0
KPG1 140225Z 02010KT 13/M01 A3027 RMK A01 T01321005  RH  039%=      5-min Rain = 0
KPG1 140226Z 02013KT 13/M01 A3027 RMK A01 T01311005  RH  039%=      5-min Rain = 0
KPG1 140227Z 02013KT 13/M01 A3027 RMK A01 T01311005  RH  039%=      5-min Rain = 0
KPG1 140228Z 01013KT 13/M01 A3027 RMK A01 T01311005  RH  039%=      5-min Rain = 0
KPG1 140229Z 02013KT 13/M01 A3027 RMK A01 T01321005  RH  039%=      5-min Rain = 0
KPG1 140230Z 01013KT 13/M01 A3027 RMK A01 T01321005  RH  039%=      5-min Rain = 0
KPG1 140231Z 02012KT 13/M01 A3027 RMK A01 T01321005  RH  039%=      5-min Rain = 0
KPG1 140232Z 01013KT 13/M01 A3027 RMK A01 T01321005  RH  039%=      5-min Rain = 0
KPG1 140233Z 01012KT 13/M01 A3027 RMK A01 T01321005  RH  039%=      5-min Rain = 0
KPG1 140234Z 02013KT 13/M00 A3027 RMK A01 T01321004  RH  039%=      5-min Rain = 0
KPG1 140235Z 01014KT 13/M00 A3027 RMK A01 T01321004  RH  039%=      5-min Rain = 0
KPG1 140236Z 01013KT 13/M01 A3027 RMK A01 T01321005  RH  039%=      5-min Rain = 0
KPG1 140237Z 02013KT 13/M01 A3027 RMK A01 T01321005  RH  039%=      5-min Rain = 0
KPG1 140238Z 02014KT 13/M01 A3027 RMK A01 T01321005  RH  039%=      5-min Rain = 0
KPG1 140239Z 02014KT 13/M00 A3027 RMK A01 T01321004  RH  039%=      5-min Rain = 0
KPG1 140240Z 01015KT 13/M00 A3027 RMK A01 T01321004  RH  039%=      5-min Rain = 0
KPG1 140241Z 02015KT 13/M00 A3027 RMK A01 T01321004  RH  039%=      5-min Rain = 0
KPG1 140242Z 02012KT 13/M00 A3027 RMK A01 T01321004  RH  039%=      5-min Rain = 0
KPG1 140243Z 02015KT 13/M00 A3027 RMK A01 T01321004  RH  039%=      5-min Rain = 0
KPG1 140244Z 02014KT 13/M00 A3027 RMK A01 T01311004  RH  039%=      5-min Rain = 0
KPG1 140245Z 02015KT 13/M00 A3027 RMK A01 T01311004  RH  039%=      5-min Rain = 0
KPG1 140246Z 02014KT 13/M00 A3027 RMK A01 T01311004  RH  039%=      5-min Rain = 0
KPG1 140247Z 02013KT 13/M00 A3027 RMK A01 T01311004  RH  040%=      5-min Rain = 0
KPG1 140248Z 01015KT 13/M00 A3027 RMK A01 T01301004  RH  040%=      5-min Rain = 0
KPG1 140249Z 01015KT 13/M00 A3027 RMK A01 T01301004  RH  040%=      5-min Rain = 0
KPG1 140250Z 02014KT 13/M00 A3027 RMK A01 T01301004  RH  040%=      5-min Rain = 0
KPG1 140251Z 02013KT 13/M00 A3027 RMK A01 T01311003  RH  040%=      5-min Rain = 0
KPG1 140252Z 01013KT 13/M00 A3027 RMK A01 T01311003  RH  040%=      5-min Rain = 0
KPG1 140253Z 01014KT 13/M00 A3027 RMK A01 T01311003  RH  040%=      5-min Rain = 0
KPG1 140254Z 01014KT 13/M00 A3027 RMK A01 T01311002  RH  040%=      5-min Rain = 0
KPG1 140255Z 01013KT 13/M00 A3027 RMK A01 T01311003  RH  040%=      5-min Rain = 0
KPG1 140256Z 01014KT 13/M00 A3027 RMK A01 T01311002  RH  040%=      5-min Rain = 0
KPG1 140257Z 02015KT 13/M00 A3027 RMK A01 T01311002  RH  040%=      5-min Rain = 0
KPG1 140258Z 02013KT 13/M00 A3027 RMK A01 T01301002  RH  040%=      5-min Rain = 0
KPG1 140259Z 02015KT 13/M00 A3026 RMK A01 T01311002  RH  040%=      5-min Rain = 0
KPG1 140300Z 02015KT 13/M00 A3026 RMK A01 T01311002  RH  040%=      5-min Rain = 0
KPG1 140301Z 02015KT 13/M00 A3026 RMK A01 T01301002  RH  040%=      5-min Rain = 0
KPG1 140302Z 02016KT 13/M00 A3026 RMK A01 T01301002  RH  040%=      5-min Rain = 0
KPG1 140303Z 01014KT 13/M00 A3027 RMK A01 T01301001  RH  040%=      5-min Rain = 0
KPG1 140304Z 01014KT 13/M00 A3027 RMK A01 T01301001  RH  040%=      5-min Rain = 0
KPG1 140305Z 02013KT 13/M00 A3027 RMK A01 T01301001  RH  041%=      5-min Rain = 0
KPG1 140306Z 01014KT 13/00 A3027 RMK A01 T013000-0  RH  041%=      5-min Rain = 0
KPG1 140307Z 02013KT 13/00 A3027 RMK A01 T013000-0  RH  041%=      5-min Rain = 0
KPG1 140308Z 02014KT 13/00 A3027 RMK A01 T01300000  RH  041%=      5-min Rain = 0
KPG1 140309Z 02014KT 13/00 A3027 RMK A01 T013000-0  RH  041%=      5-min Rain = 0
KPG1 140310Z 02015KT 13/00 A3026 RMK A01 T01300000  RH  041%=      5-min Rain = 0
KPG1 140311Z 02015KT 13/00 A3026 RMK A01 T01300000  RH  041%=      5-min Rain = 0
KPG1 140312Z 02013KT 13/00 A3027 RMK A01 T01300001  RH  041%=      5-min Rain = 0
KPG1 140313Z 01014KT 13/00 A3027 RMK A01 T01300001  RH  041%=      5-min Rain = 0
KPG1 140314Z 01013KT 13/00 A3027 RMK A01 T01300001  RH  041%=      5-min Rain = 0
KPG1 140315Z 01014KT 13/00 A3027 RMK A01 T01300002  RH  041%=      5-min Rain = 0
KPG1 140316Z 01014KT 13/00 A3027 RMK A01 T01300002  RH  041%=      5-min Rain = 0
KPG1 140317Z 01016KT 13/00 A3027 RMK A01 T01300002  RH  041%=      5-min Rain = 0
KPG1 140318Z 01015KT 13/00 A3027 RMK A01 T01300002  RH  042%=      5-min Rain = 0
KPG1 140319Z 01015KT 13/00 A3027 RMK A01 T01300003  RH  042%=      5-min Rain = 0
KPG1 140320Z 01016KT 13/00 A3027 RMK A01 T01300004  RH  042%=      5-min Rain = 0
KPG1 140321Z 01015KT 13/00 A3026 RMK A01 T01300004  RH  042%=      5-min Rain = 0
KPG1 140322Z 01015KT 13/01 A3026 RMK A01 T01300005  RH  042%=      5-min Rain = 0
KPG1 140323Z 02013KT 13/01 A3026 RMK A01 T01310005  RH  042%=      5-min Rain = 0
KPG1 140324Z 02015KT 13/01 A3026 RMK A01 T01310006  RH  042%=      5-min Rain = 0
KPG1 140325Z 01013KT 13/01 A3026 RMK A01 T01300007  RH  043%=      5-min Rain = 0
KPG1 140326Z 02015KT 13/01 A3026 RMK A01 T01300006  RH  043%=      5-min Rain = 0
KPG1 140327Z 02014KT 13/01 A3026 RMK A01 T01300007  RH  043%=      5-min Rain = 0
KPG1 140328Z 00015KT 13/01 A3026 RMK A01 T01300008  RH  043%=      5-min Rain = 0
KPG1 140329Z 02014KT 13/01 A3026 RMK A01 T01300009  RH  043%=      5-min Rain = 0
KPG1 140330Z 01015KT 13/01 A3026 RMK A01 T01300009  RH  043%=      5-min Rain = 0
KPG1 140331Z 02014KT 13/01 A3026 RMK A01 T01300009  RH  044%=      5-min Rain = 0
KPG1 140332Z 02014KT 13/01 A3026 RMK A01 T01300010  RH  044%=      5-min Rain = 0
KPG1 140333Z 02013KT 13/01 A3027 RMK A01 T01300010  RH  044%=      5-min Rain = 0
KPG1 140334Z 02014KT 13/01 A3027 RMK A01 T01300011  RH  044%=      5-min Rain = 0
KPG1 140335Z 02015KT 13/01 A3027 RMK A01 T01300012  RH  044%=      5-min Rain = 0
KPG1 140336Z 02013KT 13/01 A3027 RMK A01 T01300011  RH  044%=      5-min Rain = 0
KPG1 140337Z 02014KT 13/01 A3027 RMK A01 T01300012  RH  044%=      5-min Rain = 0
KPG1 140338Z 02014KT 13/01 A3027 RMK A01 T01300012  RH  044%=      5-min Rain = 0
KPG1 140339Z 03013KT 13/01 A3027 RMK A01 T01300012  RH  045%=      5-min Rain = 0
KPG1 140340Z 03012KT 13/01 A3027 RMK A01 T01300011  RH  044%=      5-min Rain = 0
KPG1 140341Z 02012KT 13/01 A3027 RMK A01 T01290011  RH  045%=      5-min Rain = 0
KPG1 140342Z 03012KT 13/01 A3027 RMK A01 T01290012  RH  045%=      5-min Rain = 0
KPG1 140343Z 02015KT 13/01 A3027 RMK A01 T01290013  RH  045%=      5-min Rain = 0
KPG1 140344Z 02013KT 13/01 A3027 RMK A01 T01280013  RH  045%=      5-min Rain = 0
KPG1 140345Z 02016KT 13/01 A3026 RMK A01 T01280013  RH  045%=      5-min Rain = 0
KPG1 140346Z 02016KT 13/02 A3026 RMK A01 T01290015  RH  046%=      5-min Rain = 0
KPG1 140347Z 02014KT 13/02 A3027 RMK A01 T01290015  RH  046%=      5-min Rain = 0
KPG1 140348Z 02014KT 13/02 A3027 RMK A01 T01290015  RH  046%=      5-min Rain = 0
KPG1 140349Z 02014KT 13/02 A3027 RMK A01 T01290016  RH  046%=      5-min Rain = 0
KPG1 140350Z 02015KT 13/02 A3027 RMK A01 T01290017  RH  046%=      5-min Rain = 0
KPG1 140351Z 02014KT 13/02 A3026 RMK A01 T01290017  RH  046%=      5-min Rain = 0
KPG1 140352Z 02016KT 13/02 A3026 RMK A01 T01290017  RH  046%=      5-min Rain = 0
KPG1 140353Z 02015KT 13/02 A3026 RMK A01 T01290018  RH  047%=      5-min Rain = 0
KPG1 140354Z 03014KT 13/02 A3027 RMK A01 T01290017  RH  047%=      5-min Rain = 0
KPG1 140355Z 03012KT 13/02 A3027 RMK A01 T01290017  RH  046%=      5-min Rain = 0
KPG1 140356Z 03011KT 13/02 A3027 RMK A01 T01290016  RH  046%=      5-min Rain = 0
KPG1 140357Z 02013KT 13/02 A3027 RMK A01 T01280017  RH  047%=      5-min Rain = 0
KPG1 140358Z 03013KT 13/02 A3027 RMK A01 T01280018  RH  047%=      5-min Rain = 0
KPG1 140359Z 03013KT 13/02 A3026 RMK A01 T01280018  RH  047%=      5-min Rain = 0
KPG1 140400Z 03013KT 13/02 A3026 RMK A01 T01280017  RH  047%=      5-min Rain = 0
KPG1 140401Z 03013KT 13/02 A3026 RMK A01 T01280018  RH  047%=      5-min Rain = 0
KPG1 140402Z 03014KT 13/02 A3026 RMK A01 T01270018  RH  047%=      5-min Rain = 0
KPG1 140403Z 03015KT 13/02 A3026 RMK A01 T01270018  RH  047%=      5-min Rain = 0
KPG1 140404Z 03016KT 13/02 A3026 RMK A01 T01270019  RH  048%=      5-min Rain = 0
KPG1 140405Z 03014KT 13/02 A3026 RMK A01 T01270020  RH  048%=      5-min Rain = 0
KPG1 140406Z 03013KT 13/02 A3027 RMK A01 T01270019  RH  048%=      5-min Rain = 0
KPG1 140407Z 03012KT 13/02 A3027 RMK A01 T01270019  RH  048%=      5-min Rain = 0
KPG1 140408Z 03014KT 13/02 A3027 RMK A01 T01270019  RH  048%=      5-min Rain = 0
KPG1 140409Z 02014KT 13/02 A3027 RMK A01 T01270020  RH  048%=      5-min Rain = 0
KPG1 140410Z 03014KT 13/02 A3026 RMK A01 T01270019  RH  048%=      5-min Rain = 0
KPG1 140411Z 03015KT 13/02 A3026 RMK A01 T01270019  RH  048%=      5-min Rain = 0
KPG1 140412Z 03015KT 13/02 A3026 RMK A01 T01270020  RH  048%=      5-min Rain = 0
KPG1 140413Z 03013KT 13/02 A3026 RMK A01 T01270020  RH  048%=      5-min Rain = 0
KPG1 140414Z 02015KT 13/02 A3027 RMK A01 T01270021  RH  048%=      5-min Rain = 0
KPG1 140415Z 03015KT 13/02 A3027 RMK A01 T01270022  RH  049%=      5-min Rain = 0
KPG1 140416Z 03011KT 13/02 A3027 RMK A01 T01270021  RH  049%=      5-min Rain = 0
KPG1 140417Z 03012KT 13/02 A3027 RMK A01 T01270021  RH  048%=      5-min Rain = 0
KPG1 140418Z 03013KT 13/02 A3027 RMK A01 T01270021  RH  049%=      5-min Rain = 0
KPG1 140419Z 03013KT 13/02 A3027 RMK A01 T01260021  RH  049%=      5-min Rain = 0
KPG1 140420Z 03015KT 13/02 A3027 RMK A01 T01260020  RH  049%=      5-min Rain = 0
KPG1 140421Z 02015KT 13/02 A3027 RMK A01 T01260021  RH  049%=      5-min Rain = 0
KPG1 140422Z 03015KT 13/02 A3027 RMK A01 T01260022  RH  049%=      5-min Rain = 0
KPG1 140423Z 03015KT 13/02 A3027 RMK A01 T01260023  RH  049%=      5-min Rain = 0
KPG1 140424Z 03015KT 13/02 A3027 RMK A01 T01260022  RH  049%=      5-min Rain = 0
KPG1 140425Z 03013KT 13/02 A3027 RMK A01 T01260021  RH  049%=      5-min Rain = 0
KPG1 140426Z 02014KT 13/02 A3027 RMK A01 T01260021  RH  049%=      5-min Rain = 0
KPG1 140427Z 03014KT 13/02 A3027 RMK A01 T01260022  RH  049%=      5-min Rain = 0
KPG1 140428Z 03015KT 13/02 A3027 RMK A01 T01260022  RH  049%=      5-min Rain = 0
KPG1 140429Z 03015KT 13/02 A3027 RMK A01 T01260023  RH  049%=      5-min Rain = 0
KPG1 140430Z 03014KT 13/02 A3027 RMK A01 T01250023  RH  050%=      5-min Rain = 0
KPG1 140431Z 03013KT 13/02 A3027 RMK A01 T01250023  RH  050%=      5-min Rain = 0
KPG1 140432Z 03014KT 13/02 A3027 RMK A01 T01250023  RH  050%=      5-min Rain = 0
KPG1 140433Z 03013KT 13/02 A3027 RMK A01 T01250023  RH  050%=      5-min Rain = 0
KPG1 140434Z 03013KT 13/02 A3027 RMK A01 T01250023  RH  050%=      5-min Rain = 0
KPG1 140435Z 03013KT 12/02 A3027 RMK A01 T01240023  RH  050%=      5-min Rain = 0
KPG1 140436Z 03012KT 12/02 A3027 RMK A01 T01240024  RH  050%=      5-min Rain = 0
KPG1 140437Z 03012KT 12/02 A3027 RMK A01 T01240023  RH  050%=      5-min Rain = 0
KPG1 140438Z 03014KT 12/02 A3027 RMK A01 T01240023  RH  050%=      5-min Rain = 0
KPG1 140439Z 04014KT 12/02 A3027 RMK A01 T01240023  RH  050%=      5-min Rain = 0
KPG1 140440Z 04014KT 12/02 A3027 RMK A01 T01230023  RH  051%=      5-min Rain = 0
KPG1 140441Z 04014KT 12/02 A3027 RMK A01 T01230023  RH  051%=      5-min Rain = 0
KPG1 140442Z 03014KT 12/02 A3027 RMK A01 T01230024  RH  051%=      5-min Rain = 0
KPG1 140443Z 03014KT 12/02 A3027 RMK A01 T01230024  RH  051%=      5-min Rain = 0
KPG1 140444Z 03014KT 12/02 A3027 RMK A01 T01230024  RH  051%=      5-min Rain = 0
KPG1 140445Z 03014KT 12/02 A3027 RMK A01 T01220024  RH  051%=      5-min Rain = 0
KPG1 140446Z 04014KT 12/02 A3026 RMK A01 T01220023  RH  051%=      5-min Rain = 0
KPG1 140447Z 03014KT 12/02 A3026 RMK A01 T01220022  RH  051%=      5-min Rain = 0
KPG1 140448Z 03014KT 12/02 A3026 RMK A01 T01220023  RH  051%=      5-min Rain = 0
KPG1 140449Z 04014KT 12/02 A3026 RMK A01 T01210023  RH  051%=      5-min Rain = 0
KPG1 140450Z 04014KT 12/02 A3026 RMK A01 T01220024  RH  051%=      5-min Rain = 0
KPG1 140451Z 04014KT 12/02 A3027 RMK A01 T01220024  RH  051%=      5-min Rain = 0
KPG1 140452Z 04014KT 12/02 A3027 RMK A01 T01220024  RH  051%=      5-min Rain = 0
KPG1 140453Z 04014KT 12/02 A3027 RMK A01 T01220024  RH  051%=      5-min Rain = 0
KPG1 140454Z 04014KT 12/02 A3027 RMK A01 T01220024  RH  051%=      5-min Rain = 0
KPG1 140455Z 04013KT 12/02 A3026 RMK A01 T01220023  RH  051%=      5-min Rain = 0
KPG1 140456Z 04013KT 12/02 A3026 RMK A01 T01220023  RH  051%=      5-min Rain = 0
KPG1 140457Z 04013KT 12/02 A3026 RMK A01 T01230022  RH  050%=      5-min Rain = 0
KPG1 140458Z 04014KT 12/02 A3026 RMK A01 T01230022  RH  050%=      5-min Rain = 0
KPG1 140459Z 04014KT 12/02 A3026 RMK A01 T01230021  RH  050%=      5-min Rain = 0
KPG1 140500Z 04014KT 12/02 A3026 RMK A01 T01230020  RH  049%=      5-min Rain = 0
KPG1 140501Z 04013KT 12/02 A3026 RMK A01 T01230019  RH  049%=      5-min Rain = 0
KPG1 140502Z 04014KT 12/02 A3026 RMK A01 T01230018  RH  049%=      5-min Rain = 0
KPG1 140503Z 04013KT 12/02 A3026 RMK A01 T01240018  RH  048%=      5-min Rain = 0
KPG1 140504Z 04013KT 12/02 A3026 RMK A01 T01230017  RH  048%=      5-min Rain = 0
KPG1 140505Z 03012KT 12/02 A3027 RMK A01 T01230017  RH  048%=      5-min Rain = 0
KPG1 140506Z 04011KT 12/02 A3027 RMK A01 T01230017  RH  048%=      5-min Rain = 0
KPG1 140507Z 04013KT 12/02 A3027 RMK A01 T01230017  RH  048%=      5-min Rain = 0
KPG1 140508Z 04012KT 12/02 A3027 RMK A01 T01230017  RH  048%=      5-min Rain = 0
KPG1 140509Z 04013KT 12/02 A3027 RMK A01 T01230017  RH  048%=      5-min Rain = 0
KPG1 140510Z 04013KT 12/02 A3027 RMK A01 T01230017  RH  048%=      5-min Rain = 0
KPG1 140511Z 04014KT 12/02 A3027 RMK A01 T01230017  RH  048%=      5-min Rain = 0
KPG1 140512Z 04015KT 12/02 A3027 RMK A01 T01240017  RH  048%=      5-min Rain = 0
KPG1 140513Z 04015KT 12/02 A3027 RMK A01 T01240018  RH  048%=      5-min Rain = 0
KPG1 140514Z 04014KT 12/02 A3027 RMK A01 T01240018  RH  048%=      5-min Rain = 0
KPG1 140515Z 04014KT 12/02 A3027 RMK A01 T01240018  RH  048%=      5-min Rain = 0
KPG1 140516Z 04014KT 12/02 A3027 RMK A01 T01240017  RH  048%=      5-min Rain = 0
KPG1 140517Z 04013KT 12/02 A3027 RMK A01 T01230017  RH  048%=      5-min Rain = 0
KPG1 140518Z 04013KT 12/02 A3027 RMK A01 T01230016  RH  048%=      5-min Rain = 0
KPG1 140519Z 04013KT 12/02 A3027 RMK A01 T01230015  RH  048%=      5-min Rain = 0
KPG1 140520Z 04013KT 12/02 A3027 RMK A01 T01220015  RH  048%=      5-min Rain = 0
KPG1 140521Z 04013KT 12/02 A3027 RMK A01 T01220015  RH  048%=      5-min Rain = 0
KPG1 140522Z 04012KT 12/02 A3027 RMK A01 T01220015  RH  048%=      5-min Rain = 0
KPG1 140523Z 04013KT 12/01 A3027 RMK A01 T01210014  RH  048%=      5-min Rain = 0
KPG1 140524Z 04013KT 12/02 A3027 RMK A01 T01210015  RH  048%=      5-min Rain = 0
KPG1 140525Z 04012KT 12/02 A3027 RMK A01 T01210015  RH  048%=      5-min Rain = 0
KPG1 140526Z 04012KT 12/02 A3027 RMK A01 T01210015  RH  048%=      5-min Rain = 0
KPG1 140527Z 04013KT 12/02 A3027 RMK A01 T01220015  RH  048%=      5-min Rain = 0
KPG1 140528Z 04013KT 12/02 A3027 RMK A01 T01220015  RH  048%=      5-min Rain = 0
KPG1 140529Z 04014KT 12/02 A3027 RMK A01 T01210015  RH  048%=      5-min Rain = 0
KPG1 140530Z 04014KT 12/02 A3027 RMK A01 T01210015  RH  048%=      5-min Rain = 0
KPG1 140531Z 05013KT 12/02 A3027 RMK A01 T01210015  RH  048%=      5-min Rain = 0
KPG1 140532Z 05014KT 12/01 A3027 RMK A01 T01210014  RH  048%=      5-min Rain = 0
KPG1 140533Z 05013KT 12/01 A3027 RMK A01 T01220014  RH  048%=      5-min Rain = 0
KPG1 140534Z 05013KT 12/01 A3027 RMK A01 T01220014  RH  048%=      5-min Rain = 0
KPG1 140535Z 05014KT 12/02 A3027 RMK A01 T01220015  RH  048%=      5-min Rain = 0
KPG1 140536Z 05013KT 12/02 A3027 RMK A01 T01220015  RH  048%=      5-min Rain = 0
KPG1 140537Z 05014KT 12/02 A3027 RMK A01 T01220015  RH  048%=      5-min Rain = 0
KPG1 140538Z 04013KT 12/02 A3027 RMK A01 T01230015  RH  048%=      5-min Rain = 0
KPG1 140539Z 04015KT 12/02 A3027 RMK A01 T01230015  RH  048%=      5-min Rain = 0
KPG1 140540Z 04014KT 12/02 A3027 RMK A01 T01230015  RH  048%=      5-min Rain = 0
KPG1 140541Z 04014KT 12/02 A3027 RMK A01 T01230016  RH  048%=      5-min Rain = 0
KPG1 140542Z 04015KT 12/02 A3027 RMK A01 T01230016  RH  048%=      5-min Rain = 0
KPG1 140543Z 04013KT 12/02 A3028 RMK A01 T01230016  RH  048%=      5-min Rain = 0
KPG1 140544Z 04013KT 12/02 A3028 RMK A01 T01230016  RH  048%=      5-min Rain = 0
KPG1 140545Z 04013KT 12/02 A3027 RMK A01 T01230015  RH  048%=      5-min Rain = 0
KPG1 140546Z 04013KT 12/02 A3027 RMK A01 T01220017  RH  048%=      5-min Rain = 0
KPG1 140547Z 05013KT 12/02 A3027 RMK A01 T01220018  RH  049%=      5-min Rain = 0
KPG1 140548Z 05014KT 12/02 A3027 RMK A01 T01220019  RH  049%=      5-min Rain = 0
KPG1 140549Z 05013KT 12/02 A3027 RMK A01 T01220020  RH  049%=      5-min Rain = 0
KPG1 140550Z 05012KT 12/02 A3027 RMK A01 T01220020  RH  050%=      5-min Rain = 0
KPG1 140551Z 05013KT 12/02 A3027 RMK A01 T01210021  RH  050%=      5-min Rain = 0
KPG1 140552Z 05013KT 12/02 A3027 RMK A01 T01210023  RH  051%=      5-min Rain = 0
KPG1 140553Z 05014KT 12/02 A3027 RMK A01 T01210024  RH  052%=      5-min Rain = 0
KPG1 140554Z 05014KT 12/03 A3027 RMK A01 T01200025  RH  052%=      5-min Rain = 0
KPG1 140555Z 05014KT 12/03 A3027 RMK A01 T01200027  RH  053%=      5-min Rain = 0
KPG1 140556Z 05014KT 12/03 A3027 RMK A01 T01200028  RH  053%=      5-min Rain = 0
KPG1 140557Z 05013KT 12/03 A3027 RMK A01 T01200029  RH  054%=      5-min Rain = 0
KPG1 140558Z 05013KT 12/03 A3027 RMK A01 T01190030  RH  054%=      5-min Rain = 0
KPG1 140559Z 05012KT 12/03 A3027 RMK A01 T01190030  RH  055%=      5-min Rain = 0

Page generated in 0.071 seconds.